| time (UTC) | temp C | wind direction | speed KPH | gust KPH | rain 1hr cm | rain 24hr cm | rain mn cm | humidity % | barometer mb |
| 20260507230821 | 17 | 284 | 1.6 | 6.4 | 0.00 | 0.28 | 0.20 | 47 | 1016.1 |
| 20260507230621 | 17 | 283 | 1.6 | 6.4 | 0.00 | 0.28 | 0.20 | 48 | 1016.1 |
| 20260507230421 | 17 | 282 | 1.6 | 6.4 | 0.00 | 0.28 | 0.20 | 47 | 1016.1 |
| 20260507230221 | 17 | 282 | 1.6 | 6.4 | 0.00 | 0.28 | 0.20 | 48 | 1016.1 |
| 20260507230042 | 17 | 278 | 1.6 | 6.4 | 0.00 | 0.30 | 0.20 | 47 | 1016.2 |
| 20260507225821 | 17 | 281 | 1.6 | 6.4 | 0.00 | 0.30 | 0.20 | 48 | 1016.2 |
| 20260507225642 | 17 | 284 | 1.6 | 6.4 | 0.00 | 0.30 | 0.20 | 47 | 1016.2 |
| 20260507225421 | 17 | 283 | 1.6 | 6.4 | 0.00 | 0.30 | 0.20 | 47 | 1016.2 |
| 20260507225221 | 17 | 285 | 1.6 | 6.4 | 0.00 | 0.30 | 0.20 | 47 | 1016.3 |
| 20260507225020 | 17 | 287 | 1.6 | 6.4 | 0.00 | 0.30 | 0.20 | 47 | 1016.2 |
| 20260507224821 | 17 | 288 | 1.6 | 6.4 | 0.00 | 0.30 | 0.20 | 47 | 1016.2 |
| 20260507224621 | 17 | 289 | 1.6 | 6.4 | 0.00 | 0.30 | 0.20 | 46 | 1016.3 |
| 20260507224421 | 17 | 292 | 1.6 | 6.4 | 0.00 | 0.30 | 0.20 | 48 | 1016.3 |
| 20260507224242 | 17 | 289 | 1.6 | 6.4 | 0.00 | 0.30 | 0.20 | 47 | 1016.2 |
| 20260507224020 | 17 | 289 | 1.6 | 6.4 | 0.00 | 0.30 | 0.20 | 48 | 1016.2 |
| 20260507223821 | 17 | 283 | 1.6 | 4.8 | 0.00 | 0.30 | 0.20 | 48 | 1016.2 |
| 20260507223620 | 17 | 286 | 1.6 | 6.4 | 0.00 | 0.30 | 0.20 | 47 | 1016.2 |
| 20260507223421 | 17 | 284 | 1.6 | 6.4 | 0.00 | 0.30 | 0.20 | 47 | 1016.2 |
| 20260507223220 | 17 | 303 | 1.6 | 6.4 | 0.00 | 0.30 | 0.20 | 47 | 1016.2 |
| 20260507223042 | 17 | 307 | 1.6 | 6.4 | 0.00 | 0.30 | 0.20 | 47 | 1016.1 |
| 20260507222821 | 17 | 314 | 1.6 | 6.4 | 0.00 | 0.30 | 0.20 | 48 | 1016.2 |
| 20260507222621 | 17 | 307 | 1.6 | 6.4 | 0.00 | 0.30 | 0.20 | 48 | 1016.1 |
| 20260507222421 | 17 | 299 | 1.6 | 6.4 | 0.00 | 0.30 | 0.20 | 47 | 1016.2 |
| 20260507222241 | 17 | 285 | 1.6 | 8.0 | 0.00 | 0.30 | 0.20 | 47 | 1016.1 |
| 20260507222021 | 17 | 295 | 1.6 | 8.0 | 0.00 | 0.30 | 0.20 | 48 | 1016.1 |
| 20260507221821 | 17 | 296 | 1.6 | 8.0 | 0.00 | 0.30 | 0.20 | 47 | 1016.1 |
| 20260507221621 | 17 | 299 | 1.6 | 8.0 | 0.00 | 0.30 | 0.20 | 47 | 1016.1 |
| 20260507221421 | 17 | 326 | 1.6 | 8.0 | 0.00 | 0.30 | 0.20 | 48 | 1016.1 |
| 20260507221222 | 17 | 19 | 1.6 | 6.4 | 0.00 | 0.30 | 0.20 | 47 | 1016.1 |
| 20260507221041 | 17 | 286 | 1.6 | 6.4 | 0.00 | 0.30 | 0.20 | 49 | 1016.1 |
| 20260507220821 | 17 | 286 | 1.6 | 6.4 | 0.00 | 0.30 | 0.20 | 49 | 1016.1 |
| 20260507220621 | 17 | 286 | 1.6 | 6.4 | 0.00 | 0.30 | 0.20 | 49 | 1016.0 |
| 20260507220421 | 17 | 281 | 1.6 | 8.0 | 0.00 | 0.30 | 0.20 | 48 | 1016.1 |
| 20260507220221 | 17 | 284 | 1.6 | 8.0 | 0.00 | 0.30 | 0.20 | 49 | 1016.1 |
| 20260507220021 | 17 | 289 | 1.6 | 8.0 | 0.00 | 0.30 | 0.20 | 48 | 1016.0 |
| 20260507215821 | 17 | 288 | 1.6 | 8.0 | 0.00 | 0.30 | 0.20 | 48 | 1016.0 |
| 20260507215620 | 17 | 286 | 1.6 | 8.0 | 0.00 | 0.30 | 0.20 | 49 | 1016.0 |
| 20260507215421 | 17 | 299 | 1.6 | 6.4 | 0.00 | 0.30 | 0.20 | 49 | 1015.9 |
| 20260507215221 | 17 | 289 | 1.6 | 6.4 | 0.00 | 0.30 | 0.20 | 50 | 1016.0 |
| 20260507215022 | 17 | 287 | 1.6 | 6.4 | 0.00 | 0.30 | 0.20 | 47 | 1016.0 |
| 20260507214821 | 17 | 326 | 1.6 | 8.0 | 0.00 | 0.30 | 0.20 | 48 | 1016.1 |
| 20260507214621 | 17 | 6 | 1.6 | 8.0 | 0.00 | 0.30 | 0.20 | 48 | 1016.1 |
| 20260507214442 | 17 | 23 | 1.6 | 8.0 | 0.00 | 0.30 | 0.20 | 48 | 1016.1 |
| 20260507214221 | 17 | 33 | 1.6 | 9.7 | 0.00 | 0.30 | 0.20 | 50 | 1016.1 |
| 20260507214042 | 17 | 36 | 1.6 | 9.7 | 0.00 | 0.33 | 0.20 | 50 | 1016.1 |
| 20260507213842 | 17 | 34 | 1.6 | 9.7 | 0.00 | 0.33 | 0.20 | 50 | 1016.0 |
| 20260507213621 | 17 | 37 | 1.6 | 9.7 | 0.00 | 0.33 | 0.20 | 50 | 1016.1 |
| 20260507213420 | 17 | 26 | 1.6 | 9.7 | 0.00 | 0.33 | 0.20 | 49 | 1016.0 |
| 20260507213221 | 17 | 13 | 1.6 | 8.0 | 0.00 | 0.33 | 0.20 | 49 | 1016.1 |
| 20260507213042 | 17 | 3 | 1.6 | 8.0 | 0.00 | 0.33 | 0.20 | 49 | 1016.1 |
| 20260507212820 | 17 | 337 | 1.6 | 8.0 | 0.00 | 0.33 | 0.20 | 47 | 1016.1 |
| 20260507212621 | 17 | 286 | 1.6 | 8.0 | 0.00 | 0.33 | 0.20 | 48 | 1016.1 |
| 20260507212421 | 17 | 277 | 3.2 | 6.4 | 0.00 | 0.33 | 0.20 | 49 | 1016.1 |
| 20260507212221 | 17 | 279 | 3.2 | 6.4 | 0.00 | 0.33 | 0.20 | 48 | 1016.0 |
| 20260507212021 | 17 | 279 | 3.2 | 6.4 | 0.00 | 0.33 | 0.20 | 48 | 1016.1 |
| 20260507211821 | 17 | 283 | 1.6 | 6.4 | 0.00 | 0.33 | 0.20 | 47 | 1016.0 |
| 20260507211621 | 17 | 285 | 1.6 | 6.4 | 0.00 | 0.33 | 0.20 | 47 | 1016.1 |
| 20260507211421 | 17 | 290 | 1.6 | 6.4 | 0.00 | 0.33 | 0.20 | 48 | 1016.0 |
| 20260507211221 | 17 | 288 | 1.6 | 6.4 | 0.00 | 0.33 | 0.20 | 49 | 1016.0 |
| 20260507211021 | 17 | 330 | 1.6 | 11.3 | 0.00 | 0.33 | 0.20 | 50 | 1016.0 |
| 20260507210821 | 17 | 8 | 1.6 | 11.3 | 0.00 | 0.33 | 0.20 | 50 | 1016.0 |
| 20260507210620 | 17 | 358 | 1.6 | 11.3 | 0.00 | 0.33 | 0.20 | 49 | 1016.0 |
| 20260507210421 | 17 | 317 | 1.6 | 11.3 | 0.00 | 0.33 | 0.20 | 47 | 1016.0 |
| 20260507210221 | 17 | 340 | 1.6 | 11.3 | 0.00 | 0.33 | 0.20 | 51 | 1016.1 |
| 20260507210021 | 17 | 307 | 1.6 | 8.0 | 0.00 | 0.33 | 0.20 | 49 | 1016.0 |
| 20260507205821 | 17 | 311 | 1.6 | 8.0 | 0.00 | 0.33 | 0.20 | 48 | 1016.0 |
| 20260507205621 | 17 | 306 | 1.6 | 8.0 | 0.00 | 0.33 | 0.20 | 47 | 1016.0 |
| 20260507205421 | 17 | 300 | 1.6 | 8.0 | 0.00 | 0.33 | 0.20 | 50 | 1016.0 |
| 20260507205243 | 17 | 296 | 1.6 | 8.0 | 0.00 | 0.33 | 0.20 | 46 | 1015.9 |
| 20260507205021 | 17 | 288 | 1.6 | 9.7 | 0.03 | 0.33 | 0.20 | 47 | 1016.0 |
| 20260507204822 | 17 | 281 | 1.6 | 9.7 | 0.03 | 0.33 | 0.20 | 48 | 1016.0 |
| 20260507204620 | 17 | 284 | 1.6 | 9.7 | 0.03 | 0.33 | 0.20 | 47 | 1016.0 |
| 20260507204442 | 17 | 283 | 1.6 | 9.7 | 0.03 | 0.33 | 0.20 | 48 | 1016.0 |
| 20260507204220 | 18 | 280 | 1.6 | 9.7 | 0.03 | 0.33 | 0.20 | 48 | 1016.0 |
| 20260507204021 | 18 | 281 | 1.6 | 8.0 | 0.03 | 0.33 | 0.20 | 49 | 1015.9 |
| 20260507203821 | 18 | 278 | 1.6 | 6.4 | 0.03 | 0.33 | 0.20 | 50 | 1016.0 |
| 20260507203621 | 17 | 287 | 1.6 | 8.0 | 0.03 | 0.33 | 0.20 | 49 | 1016.0 |
| 20260507203421 | 17 | 292 | 1.6 | 8.0 | 0.03 | 0.33 | 0.20 | 50 | 1016.0 |
| 20260507203242 | 17 | 319 | 1.6 | 8.0 | 0.03 | 0.33 | 0.20 | 48 | 1016.1 |
| 20260507203021 | 17 | 350 | 1.6 | 8.0 | 0.03 | 0.33 | 0.20 | 50 | 1016.0 |
| 20260507202820 | 17 | 12 | 1.6 | 8.0 | 0.03 | 0.33 | 0.20 | 49 | 1015.9 |
| 20260507202621 | 17 | 13 | 1.6 | 6.4 | 0.03 | 0.33 | 0.20 | 49 | 1016.0 |
| 20260507202421 | 17 | 24 | 1.6 | 8.0 | 0.03 | 0.33 | 0.20 | 48 | 1015.9 |
| 20260507202220 | 17 | 306 | 1.6 | 8.0 | 0.03 | 0.36 | 0.20 | 50 | 1015.9 |
| 20260507202042 | 17 | 288 | 1.6 | 12.9 | 0.03 | 0.36 | 0.20 | 46 | 1016.0 |
| 20260507201842 | 17 | 285 | 1.6 | 12.9 | 0.03 | 0.36 | 0.20 | 47 | 1016.0 |
| 20260507201621 | 18 | 284 | 1.6 | 12.9 | 0.03 | 0.36 | 0.20 | 48 | 1016.1 |
| 20260507201421 | 18 | 276 | 1.6 | 12.9 | 0.03 | 0.36 | 0.20 | 47 | 1016.1 |
| 20260507201221 | 18 | 271 | 1.6 | 12.9 | 0.03 | 0.36 | 0.20 | 46 | 1016.1 |
| 20260507201021 | 18 | 262 | 1.6 | 4.8 | 0.03 | 0.36 | 0.20 | 50 | 1016.1 |
| 20260507200822 | 18 | 264 | 1.6 | 4.8 | 0.03 | 0.36 | 0.20 | 51 | 1016.1 |
| 20260507200642 | 18 | 265 | 1.6 | 4.8 | 0.03 | 0.36 | 0.20 | 50 | 1016.1 |
| 20260507200420 | 18 | 262 | 1.6 | 4.8 | 0.03 | 0.36 | 0.20 | 51 | 1016.1 |
| 20260507200221 | 18 | 268 | 1.6 | 4.8 | 0.03 | 0.36 | 0.20 | 53 | 1016.2 |
| 20260507200021 | 17 | 266 | 1.6 | 6.4 | 0.03 | 0.36 | 0.20 | 52 | 1016.2 |
| 20260507195822 | 17 | 275 | 1.6 | 8.0 | 0.03 | 0.36 | 0.20 | 52 | 1016.2 |
| 20260507195621 | 17 | 277 | 1.6 | 8.0 | 0.03 | 0.36 | 0.20 | 52 | 1016.2 |
| 20260507195421 | 17 | 277 | 1.6 | 8.0 | 0.03 | 0.36 | 0.20 | 50 | 1016.2 |
| 20260507195221 | 17 | 279 | 3.2 | 8.0 | 0.03 | 0.36 | 0.20 | 49 | 1016.3 |
| 20260507195021 | 17 | 285 | 3.2 | 8.0 | 0.00 | 0.33 | 0.18 | 48 | 1016.3 |
| 20260507194821 | 17 | 282 | 1.6 | 8.0 | 0.00 | 0.33 | 0.18 | 51 | 1016.3 |
| 20260507194621 | 17 | 281 | 1.6 | 9.7 | 0.00 | 0.33 | 0.18 | 50 | 1016.3 |
| 20260507194442 | 17 | 283 | 1.6 | 9.7 | 0.00 | 0.33 | 0.18 | 49 | 1016.4 |
| 20260507194220 | 17 | 292 | 1.6 | 12.9 | 0.00 | 0.33 | 0.18 | 47 | 1016.4 |
| 20260507194042 | 17 | 289 | 1.6 | 12.9 | 0.00 | 0.33 | 0.18 | 51 | 1016.3 |
| 20260507193821 | 17 | 280 | 1.6 | 12.9 | 0.00 | 0.33 | 0.18 | 47 | 1016.3 |
| 20260507193642 | 17 | 281 | 1.6 | 12.9 | 0.00 | 0.33 | 0.18 | 49 | 1016.4 |
| 20260507193422 | 17 | 274 | 1.6 | 8.0 | 0.00 | 0.33 | 0.18 | 51 | 1016.4 |
| 20260507193221 | 17 | 279 | 1.6 | 8.0 | 0.00 | 0.33 | 0.18 | 49 | 1016.4 |
| 20260507193021 | 17 | 285 | 3.2 | 8.0 | 0.00 | 0.33 | 0.18 | 50 | 1016.4 |
| 20260507192821 | 17 | 287 | 3.2 | 8.0 | 0.00 | 0.33 | 0.18 | 49 | 1016.4 |
| 20260507192620 | 17 | 298 | 3.2 | 8.0 | 0.00 | 0.33 | 0.18 | 48 | 1016.4 |
| 20260507192421 | 17 | 292 | 3.2 | 8.0 | 0.00 | 0.33 | 0.18 | 50 | 1016.5 |
| 20260507192221 | 17 | 285 | 3.2 | 8.0 | 0.00 | 0.33 | 0.18 | 50 | 1016.5 |
| 20260507192021 | 17 | 284 | 3.2 | 8.0 | 0.00 | 0.33 | 0.18 | 49 | 1016.5 |
| 20260507191821 | 17 | 286 | 3.2 | 9.7 | 0.00 | 0.33 | 0.18 | 51 | 1016.5 |
| 20260507191621 | 17 | 280 | 3.2 | 9.7 | 0.00 | 0.33 | 0.18 | 48 | 1016.6 |
| 20260507191422 | 17 | 278 | 1.6 | 9.7 | 0.00 | 0.36 | 0.18 | 50 | 1016.5 |
| 20260507191220 | 17 | 277 | 1.6 | 9.7 | 0.00 | 0.36 | 0.18 | 51 | 1016.4 |
| 20260507191021 | 17 | 272 | 1.6 | 9.7 | 0.00 | 0.36 | 0.18 | 50 | 1016.5 |
| 20260507190821 | 17 | 267 | 1.6 | 6.4 | 0.00 | 0.36 | 0.18 | 50 | 1016.4 |
| 20260507190642 | 17 | 261 | 1.6 | 6.4 | 0.00 | 0.36 | 0.18 | 51 | 1016.5 |
| 20260507190421 | 17 | 254 | 1.6 | 4.8 | 0.00 | 0.36 | 0.18 | 51 | 1016.5 |
| 20260507190221 | 17 | 258 | 1.6 | 6.4 | 0.00 | 0.36 | 0.18 | 51 | 1016.4 |
| 20260507190021 | 17 | 276 | 3.2 | 9.7 | 0.00 | 0.36 | 0.18 | 51 | 1016.4 |
| 20260507185822 | 17 | 282 | 3.2 | 9.7 | 0.00 | 0.36 | 0.18 | 51 | 1016.5 |
| 20260507185621 | 17 | 286 | 3.2 | 9.7 | 0.00 | 0.36 | 0.18 | 51 | 1016.5 |
| 20260507185421 | 17 | 284 | 3.2 | 9.7 | 0.00 | 0.36 | 0.18 | 49 | 1016.5 |
| 20260507185221 | 17 | 283 | 3.2 | 9.7 | 0.00 | 0.36 | 0.18 | 49 | 1016.6 |
| 20260507185021 | 17 | 286 | 3.2 | 9.7 | 0.00 | 0.36 | 0.18 | 49 | 1016.6 |
| 20260507184821 | 17 | 283 | 1.6 | 12.9 | 0.00 | 0.36 | 0.18 | 50 | 1016.6 |
| 20260507184642 | 17 | 285 | 1.6 | 12.9 | 0.00 | 0.36 | 0.18 | 53 | 1016.6 |
| 20260507184421 | 17 | 290 | 1.6 | 12.9 | 0.00 | 0.36 | 0.18 | 52 | 1016.6 |
| 20260507184221 | 17 | 292 | 1.6 | 12.9 | 0.00 | 0.36 | 0.18 | 52 | 1016.6 |
| 20260507184021 | 17 | 288 | 1.6 | 12.9 | 0.00 | 0.36 | 0.18 | 51 | 1016.6 |
| 20260507183821 | 17 | 288 | 1.6 | 6.4 | 0.00 | 0.36 | 0.18 | 51 | 1016.5 |
| 20260507183621 | 17 | 276 | 1.6 | 4.8 | 0.00 | 0.36 | 0.18 | 51 | 1016.6 |
| 20260507183421 | 17 | 281 | 1.6 | 6.4 | 0.00 | 0.36 | 0.18 | 52 | 1016.6 |
| 20260507183221 | 17 | 283 | 1.6 | 8.0 | 0.00 | 0.36 | 0.18 | 51 | 1016.6 |
| 20260507183021 | 17 | 288 | 1.6 | 8.0 | 0.03 | 0.36 | 0.18 | 53 | 1016.6 |
| 20260507182821 | 17 | 299 | 1.6 | 8.0 | 0.03 | 0.36 | 0.18 | 52 | 1016.6 |
| 20260507182621 | 17 | 302 | 1.6 | 8.0 | 0.03 | 0.36 | 0.18 | 50 | 1016.7 |
| 20260507182420 | 17 | 326 | 1.6 | 8.0 | 0.03 | 0.36 | 0.18 | 52 | 1016.7 |
| 20260507182221 | 17 | 329 | 1.6 | 8.0 | 0.03 | 0.38 | 0.18 | 52 | 1016.6 |
| 20260507182021 | 17 | 9 | 1.6 | 6.4 | 0.03 | 0.38 | 0.18 | 55 | 1016.5 |
| 20260507181821 | 17 | 23 | 1.6 | 6.4 | 0.03 | 0.38 | 0.18 | 53 | 1016.5 |
| 20260507181643 | 17 | 16 | 1.6 | 6.4 | 0.03 | 0.38 | 0.18 | 54 | 1016.5 |
| 20260507181421 | 17 | 23 | 1.6 | 6.4 | 0.03 | 0.38 | 0.18 | 53 | 1016.6 |
| 20260507181221 | 17 | 46 | 1.6 | 6.4 | 0.03 | 0.38 | 0.18 | 52 | 1016.6 |
| 20260507181021 | 17 | 30 | 1.6 | 6.4 | 0.03 | 0.38 | 0.18 | 54 | 1016.6 |
| 20260507180842 | 17 | 295 | 1.6 | 8.0 | 0.03 | 0.38 | 0.18 | 52 | 1016.7 |
| 20260507180622 | 17 | 283 | 1.6 | 8.0 | 0.03 | 0.38 | 0.18 | 52 | 1016.6 |
| 20260507180421 | 17 | 272 | 1.6 | 8.0 | 0.03 | 0.38 | 0.18 | 51 | 1016.6 |
| 20260507180221 | 17 | 270 | 3.2 | 8.0 | 0.03 | 0.38 | 0.18 | 50 | 1016.7 |
| 20260507180021 | 17 | 268 | 1.6 | 8.0 | 0.03 | 0.38 | 0.18 | 50 | 1016.7 |
| 20260507175822 | 17 | 266 | 1.6 | 8.0 | 0.03 | 0.38 | 0.18 | 53 | 1016.7 |
| 20260507175621 | 17 | 269 | 3.2 | 8.0 | 0.03 | 0.38 | 0.18 | 52 | 1016.7 |
| 20260507175443 | 17 | 273 | 3.2 | 8.0 | 0.03 | 0.38 | 0.18 | 51 | 1016.7 |
| 20260507175221 | 17 | 282 | 3.2 | 8.0 | 0.03 | 0.38 | 0.18 | 52 | 1016.8 |
| 20260507175021 | 17 | 284 | 3.2 | 8.0 | 0.03 | 0.38 | 0.18 | 51 | 1016.8 |
| 20260507174843 | 17 | 286 | 3.2 | 6.4 | 0.03 | 0.38 | 0.18 | 51 | 1016.8 |
| 20260507174621 | 17 | 285 | 3.2 | 6.4 | 0.03 | 0.38 | 0.18 | 51 | 1016.8 |
| 20260507174421 | 17 | 280 | 3.2 | 9.7 | 0.03 | 0.38 | 0.18 | 51 | 1016.9 |
| 20260507174221 | 17 | 278 | 3.2 | 9.7 | 0.03 | 0.38 | 0.18 | 51 | 1016.9 |
| 20260507174021 | 17 | 276 | 3.2 | 11.3 | 0.03 | 0.38 | 0.18 | 53 | 1016.9 |
| 20260507173821 | 17 | 276 | 1.6 | 11.3 | 0.03 | 0.38 | 0.18 | 50 | 1016.9 |
| 20260507173621 | 17 | 276 | 1.6 | 11.3 | 0.03 | 0.38 | 0.18 | 50 | 1017.0 |
| 20260507173442 | 17 | 279 | 1.6 | 11.3 | 0.03 | 0.38 | 0.18 | 52 | 1016.9 |
| 20260507173221 | 17 | 282 | 1.6 | 11.3 | 0.03 | 0.41 | 0.18 | 53 | 1017.0 |
| 20260507173021 | 17 | 296 | 1.6 | 8.0 | 0.00 | 0.38 | 0.15 | 52 | 1017.0 |
| 20260507172821 | 17 | 307 | 1.6 | 9.7 | 0.00 | 0.38 | 0.15 | 52 | 1017.1 |
| 20260507172621 | 17 | 24 | 1.6 | 9.7 | 0.00 | 0.38 | 0.15 | 53 | 1017.1 |
| 20260507172420 | 17 | 29 | 1.6 | 9.7 | 0.00 | 0.38 | 0.15 | 55 | 1017.1 |
| 20260507172221 | 17 | 30 | 3.2 | 9.7 | 0.03 | 0.38 | 0.15 | 53 | 1017.2 |
| 20260507172021 | 17 | 34 | 3.2 | 9.7 | 0.03 | 0.38 | 0.15 | 52 | 1017.2 |
| 20260507171821 | 17 | 50 | 3.2 | 8.0 | 0.03 | 0.38 | 0.15 | 51 | 1017.2 |
| 20260507171621 | 17 | 55 | 3.2 | 8.0 | 0.03 | 0.38 | 0.15 | 52 | 1017.2 |
| 20260507171421 | 17 | 57 | 3.2 | 8.0 | 0.03 | 0.38 | 0.15 | 52 | 1017.2 |
| 20260507171242 | 17 | 53 | 1.6 | 8.0 | 0.03 | 0.38 | 0.15 | 52 | 1017.3 |
| 20260507171021 | 17 | 49 | 1.6 | 8.0 | 0.03 | 0.38 | 0.15 | 51 | 1017.3 |
| 20260507170821 | 17 | 17 | 1.6 | 8.0 | 0.03 | 0.38 | 0.15 | 52 | 1017.4 |
| 20260507170621 | 17 | 341 | 1.6 | 8.0 | 0.03 | 0.38 | 0.15 | 54 | 1017.5 |
| 20260507170421 | 17 | 309 | 1.6 | 6.4 | 0.03 | 0.38 | 0.15 | 51 | 1017.5 |
| 20260507170221 | 17 | 346 | 3.2 | 6.4 | 0.03 | 0.38 | 0.15 | 53 | 1017.5 |
| 20260507170042 | 17 | 307 | 3.2 | 6.4 | 0.03 | 0.38 | 0.15 | 51 | 1017.5 |
| 20260507165821 | 17 | 286 | 3.2 | 9.7 | 0.03 | 0.38 | 0.15 | 50 | 1017.6 |
| 20260507165642 | 17 | 283 | 1.6 | 9.7 | 0.03 | 0.38 | 0.15 | 53 | 1017.6 |
| 20260507165421 | 17 | 284 | 1.6 | 9.7 | 0.03 | 0.38 | 0.15 | 54 | 1017.6 |
| 20260507165242 | 17 | 274 | 1.6 | 9.7 | 0.03 | 0.38 | 0.15 | 52 | 1017.6 |
| 20260507165022 | 17 | 284 | 1.6 | 9.7 | 0.03 | 0.38 | 0.15 | 54 | 1017.5 |
| 20260507164821 | 17 | 23 | 1.6 | 9.7 | 0.03 | 0.38 | 0.15 | 52 | 1017.5 |
| 20260507164643 | 17 | 51 | 1.6 | 8.0 | 0.03 | 0.38 | 0.15 | 57 | 1017.6 |
| 20260507164421 | 17 | 40 | 1.6 | 8.0 | 0.03 | 0.38 | 0.15 | 55 | 1017.5 |
| 20260507164221 | 17 | 23 | 1.6 | 8.0 | 0.03 | 0.38 | 0.15 | 53 | 1017.5 |
| 20260507164022 | 17 | 28 | 1.6 | 8.0 | 0.03 | 0.38 | 0.15 | 53 | 1017.6 |
| 20260507163821 | 17 | 351 | 1.6 | 8.0 | 0.03 | 0.38 | 0.15 | 53 | 1017.7 |
| 20260507163621 | 17 | 7 | 3.2 | 8.0 | 0.03 | 0.41 | 0.15 | 53 | 1017.7 |
| 20260507163421 | 17 | 22 | 3.2 | 8.0 | 0.03 | 0.41 | 0.15 | 55 | 1017.7 |
| 20260507163222 | 17 | 41 | 3.2 | 8.0 | 0.03 | 0.41 | 0.15 | 54 | 1017.8 |
| 20260507163021 | 17 | 38 | 3.2 | 8.0 | 0.03 | 0.41 | 0.15 | 51 | 1017.8 |
| 20260507162821 | 17 | 49 | 3.2 | 8.0 | 0.03 | 0.41 | 0.15 | 55 | 1017.9 |
| 20260507162621 | 17 | 46 | 3.2 | 8.0 | 0.03 | 0.41 | 0.15 | 53 | 1017.9 |
| 20260507162421 | 17 | 23 | 3.2 | 8.0 | 0.03 | 0.41 | 0.15 | 52 | 1018.0 |
| 20260507162221 | 17 | 301 | 3.2 | 9.7 | 0.00 | 0.38 | 0.13 | 54 | 1017.9 |
| 20260507162021 | 17 | 287 | 3.2 | 9.7 | 0.00 | 0.38 | 0.13 | 52 | 1017.8 |
| 20260507161821 | 17 | 282 | 3.2 | 11.3 | 0.00 | 0.38 | 0.13 | 56 | 1017.8 |
| 20260507161621 | 16 | 283 | 3.2 | 11.3 | 0.00 | 0.38 | 0.13 | 53 | 1017.7 |
| 20260507161421 | 16 | 294 | 3.2 | 11.3 | 0.00 | 0.38 | 0.13 | 55 | 1017.9 |
| 20260507161221 | 16 | 295 | 3.2 | 11.3 | 0.00 | 0.38 | 0.13 | 53 | 1017.8 |
| 20260507161021 | 16 | 292 | 3.2 | 11.3 | 0.00 | 0.38 | 0.13 | 53 | 1017.7 |
| 20260507160821 | 16 | 341 | 3.2 | 9.7 | 0.00 | 0.38 | 0.13 | 55 | 1017.7 |
| 20260507160621 | 16 | 3 | 3.2 | 9.7 | 0.00 | 0.38 | 0.13 | 51 | 1017.7 |
| 20260507160421 | 16 | 13 | 3.2 | 11.3 | 0.00 | 0.38 | 0.13 | 53 | 1017.6 |
| 20260507160221 | 16 | 24 | 3.2 | 12.9 | 0.00 | 0.38 | 0.13 | 54 | 1017.7 |
| 20260507160021 | 16 | 28 | 3.2 | 12.9 | 0.00 | 0.38 | 0.13 | 55 | 1017.7 |
| 20260507155821 | 16 | 33 | 3.2 | 12.9 | 0.00 | 0.38 | 0.13 | 55 | 1017.7 |
| 20260507155621 | 16 | 33 | 3.2 | 12.9 | 0.00 | 0.38 | 0.13 | 53 | 1017.7 |
| 20260507155421 | 16 | 35 | 1.6 | 12.9 | 0.03 | 0.38 | 0.13 | 52 | 1017.6 |
| 20260507155221 | 16 | 45 | 1.6 | 8.0 | 0.03 | 0.38 | 0.13 | 52 | 1017.6 |
| 20260507155021 | 17 | 52 | 1.6 | 8.0 | 0.03 | 0.38 | 0.13 | 54 | 1017.6 |
| 20260507154821 | 17 | 63 | 1.6 | 8.0 | 0.03 | 0.41 | 0.13 | 53 | 1017.7 |
| 20260507154621 | 17 | 53 | 1.6 | 6.4 | 0.03 | 0.41 | 0.13 | 55 | 1017.7 |
| 20260507154422 | 17 | 37 | 1.6 | 8.0 | 0.03 | 0.41 | 0.13 | 55 | 1017.7 |
| 20260507154221 | 17 | 29 | 1.6 | 8.0 | 0.03 | 0.41 | 0.13 | 55 | 1017.7 |
| 20260507154021 | 16 | 12 | 1.6 | 8.0 | 0.03 | 0.41 | 0.13 | 59 | 1017.7 |
| 20260507153821 | 16 | 17 | 1.6 | 8.0 | 0.03 | 0.41 | 0.13 | 55 | 1017.7 |
| 20260507153622 | 17 | 1 | 1.6 | 8.0 | 0.03 | 0.41 | 0.13 | 58 | 1017.7 |
| 20260507153442 | 16 | 357 | 1.6 | 8.0 | 0.03 | 0.41 | 0.13 | 56 | 1017.6 |
| 20260507153242 | 16 | 35 | 1.6 | 8.0 | 0.03 | 0.41 | 0.13 | 59 | 1017.6 |
| 20260507153021 | 16 | 39 | 1.6 | 11.3 | 0.03 | 0.41 | 0.13 | 58 | 1017.6 |
| 20260507152821 | 16 | 42 | 1.6 | 11.3 | 0.03 | 0.41 | 0.13 | 57 | 1017.6 |
| 20260507152621 | 16 | 47 | 1.6 | 11.3 | 0.03 | 0.41 | 0.13 | 58 | 1017.7 |
| 20260507152421 | 16 | 45 | 1.6 | 11.3 | 0.03 | 0.41 | 0.13 | 57 | 1017.8 |
| 20260507152221 | 16 | 42 | 1.6 | 11.3 | 0.03 | 0.41 | 0.13 | 60 | 1017.8 |
| 20260507152021 | 16 | 40 | 1.6 | 6.4 | 0.03 | 0.41 | 0.13 | 59 | 1017.8 |
| 20260507151842 | 16 | 3 | 3.2 | 6.4 | 0.03 | 0.41 | 0.13 | 56 | 1017.8 |
| 20260507151642 | 16 | 1 | 3.2 | 6.4 | 0.03 | 0.41 | 0.13 | 58 | 1017.9 |
| 20260507151421 | 16 | 24 | 3.2 | 8.0 | 0.03 | 0.41 | 0.13 | 58 | 1017.9 |
| 20260507151242 | 16 | 37 | 3.2 | 9.7 | 0.03 | 0.41 | 0.13 | 60 | 1017.9 |
| 20260507151021 | 16 | 45 | 3.2 | 9.7 | 0.03 | 0.41 | 0.13 | 59 | 1017.9 |
| 20260507150821 | 16 | 45 | 3.2 | 12.9 | 0.03 | 0.43 | 0.13 | 60 | 1017.9 |
| 20260507150643 | 16 | 44 | 3.2 | 12.9 | 0.03 | 0.43 | 0.13 | 61 | 1018.0 |
| 20260507150421 | 16 | 31 | 3.2 | 12.9 | 0.03 | 0.43 | 0.13 | 60 | 1018.1 |
| 20260507150221 | 16 | 3 | 3.2 | 12.9 | 0.03 | 0.43 | 0.13 | 62 | 1018.1 |
| 20260507150021 | 16 | 324 | 3.2 | 12.9 | 0.03 | 0.43 | 0.13 | 62 | 1018.1 |
| 20260507145821 | 16 | 291 | 1.6 | 9.7 | 0.03 | 0.43 | 0.13 | 60 | 1017.9 |
| 20260507145621 | 16 | 279 | 1.6 | 9.7 | 0.03 | 0.43 | 0.13 | 60 | 1017.9 |
| 20260507145442 | 16 | 277 | 1.6 | 9.7 | 0.00 | 0.41 | 0.13 | 59 | 1017.9 |
| 20260507145221 | 16 | 278 | 1.6 | 8.0 | 0.00 | 0.41 | 0.10 | 60 | 1017.8 |
| 20260507145021 | 16 | 300 | 1.6 | 8.0 | 0.00 | 0.41 | 0.10 | 60 | 1017.9 |
| 20260507144821 | 16 | 4 | 1.6 | 8.0 | 0.00 | 0.41 | 0.10 | 64 | 1017.8 |
| 20260507144621 | 16 | 37 | 1.6 | 6.4 | 0.00 | 0.41 | 0.10 | 63 | 1017.8 |
| 20260507144421 | 16 | 34 | 1.6 | 6.4 | 0.00 | 0.41 | 0.10 | 65 | 1017.8 |
| 20260507144221 | 15 | 34 | 1.6 | 6.4 | 0.00 | 0.41 | 0.10 | 62 | 1017.8 |
| 20260507144042 | 15 | 31 | 1.6 | 6.4 | 0.00 | 0.41 | 0.10 | 63 | 1017.8 |
| 20260507143821 | 15 | 22 | 1.6 | 6.4 | 0.00 | 0.41 | 0.10 | 62 | 1017.8 |
| 20260507143621 | 15 | 23 | 1.6 | 4.8 | 0.00 | 0.41 | 0.10 | 63 | 1017.8 |
| 20260507143421 | 15 | 25 | 1.6 | 4.8 | 0.00 | 0.41 | 0.10 | 64 | 1017.8 |
| 20260507143221 | 15 | 24 | 1.6 | 6.4 | 0.00 | 0.43 | 0.10 | 66 | 1017.8 |
| 20260507143022 | 15 | 29 | 1.6 | 6.4 | 0.00 | 0.43 | 0.10 | 64 | 1017.8 |
| 20260507142842 | 15 | 37 | 1.6 | 6.4 | 0.00 | 0.43 | 0.10 | 65 | 1017.8 |
| 20260507142621 | 15 | 40 | 1.6 | 6.4 | 0.00 | 0.43 | 0.10 | 64 | 1017.8 |
| 20260507142442 | 15 | 41 | 1.6 | 6.4 | 0.00 | 0.43 | 0.10 | 65 | 1017.8 |
| 20260507142242 | 15 | 46 | 1.6 | 6.4 | 0.00 | 0.43 | 0.10 | 62 | 1017.8 |
| 20260507142021 | 15 | 49 | 1.6 | 4.8 | 0.00 | 0.43 | 0.10 | 63 | 1017.8 |
| 20260507141821 | 15 | 52 | 1.6 | 4.8 | 0.00 | 0.43 | 0.10 | 63 | 1017.8 |
| 20260507141621 | 15 | 21 | 1.6 | 8.0 | 0.00 | 0.43 | 0.10 | 64 | 1017.9 |
| 20260507141421 | 15 | 13 | 1.6 | 8.0 | 0.00 | 0.43 | 0.10 | 64 | 1017.9 |
| 20260507141242 | 15 | 5 | 1.6 | 8.0 | 0.00 | 0.43 | 0.10 | 64 | 1017.9 |
| 20260507141021 | 15 | 10 | 1.6 | 8.0 | 0.00 | 0.43 | 0.10 | 64 | 1017.8 |
| 20260507140821 | 15 | 5 | 3.2 | 8.0 | 0.00 | 0.43 | 0.10 | 64 | 1017.7 |
| 20260507140621 | 15 | 33 | 3.2 | 6.4 | 0.00 | 0.43 | 0.10 | 66 | 1017.6 |
| 20260507140421 | 15 | 34 | 3.2 | 8.0 | 0.00 | 0.43 | 0.10 | 65 | 1017.5 |
| 20260507140221 | 14 | 39 | 3.2 | 8.0 | 0.00 | 0.46 | 0.10 | 66 | 1017.5 |
| 20260507140022 | 14 | 41 | 3.2 | 8.0 | 0.00 | 0.46 | 0.10 | 68 | 1017.5 |
| 20260507135821 | 14 | 40 | 3.2 | 8.0 | 0.00 | 0.46 | 0.10 | 66 | 1017.5 |
| 20260507135621 | 14 | 38 | 3.2 | 8.0 | 0.00 | 0.46 | 0.10 | 65 | 1017.5 |
| 20260507135421 | 14 | 40 | 3.2 | 6.4 | 0.00 | 0.46 | 0.10 | 67 | 1017.6 |
| 20260507135223 | 14 | 40 | 3.2 | 6.4 | 0.00 | 0.46 | 0.10 | 65 | 1017.5 |
| 20260507135021 | 14 | 37 | 3.2 | 6.4 | 0.00 | 0.46 | 0.10 | 66 | 1017.6 |
| 20260507134821 | 14 | 39 | 3.2 | 6.4 | 0.03 | 0.46 | 0.10 | 66 | 1017.6 |
| 20260507134642 | 14 | 35 | 3.2 | 8.0 | 0.03 | 0.46 | 0.10 | 67 | 1017.6 |
| 20260507134421 | 13 | 35 | 3.2 | 8.0 | 0.03 | 0.46 | 0.10 | 68 | 1017.6 |
| 20260507134221 | 13 | 30 | 3.2 | 8.0 | 0.03 | 0.46 | 0.10 | 68 | 1017.6 |
| 20260507134021 | 13 | 34 | 3.2 | 8.0 | 0.03 | 0.46 | 0.10 | 68 | 1017.6 |
| 20260507133821 | 13 | 37 | 3.2 | 8.0 | 0.03 | 0.48 | 0.10 | 67 | 1017.6 |
| 20260507133621 | 13 | 36 | 3.2 | 6.4 | 0.03 | 0.48 | 0.10 | 67 | 1017.6 |
| 20260507133421 | 13 | 34 | 3.2 | 8.0 | 0.03 | 0.48 | 0.10 | 68 | 1017.5 |
| 20260507133221 | 13 | 32 | 3.2 | 8.0 | 0.03 | 0.48 | 0.10 | 68 | 1017.5 |
| 20260507133021 | 13 | 29 | 3.2 | 8.0 | 0.03 | 0.48 | 0.10 | 69 | 1017.5 |
| 20260507132821 | 13 | 28 | 3.2 | 8.0 | 0.03 | 0.48 | 0.10 | 69 | 1017.4 |
| 20260507132621 | 13 | 31 | 3.2 | 8.0 | 0.03 | 0.48 | 0.10 | 69 | 1017.4 |
| 20260507132422 | 13 | 33 | 3.2 | 8.0 | 0.03 | 0.48 | 0.10 | 68 | 1017.5 |
| 20260507132221 | 13 | 39 | 1.6 | 6.4 | 0.03 | 0.48 | 0.10 | 70 | 1017.5 |
| 20260507132021 | 13 | 45 | 1.6 | 6.4 | 0.03 | 0.51 | 0.10 | 71 | 1017.5 |
| 20260507131821 | 13 | 43 | 1.6 | 6.4 | 0.03 | 0.51 | 0.10 | 71 | 1017.5 |
| 20260507131621 | 13 | 42 | 1.6 | 4.8 | 0.03 | 0.51 | 0.10 | 71 | 1017.5 |
| 20260507131421 | 12 | 43 | 1.6 | 4.8 | 0.03 | 0.51 | 0.10 | 72 | 1017.5 |
| 20260507131221 | 12 | 44 | 1.6 | 6.4 | 0.03 | 0.51 | 0.10 | 73 | 1017.4 |
| 20260507131021 | 12 | 43 | 1.6 | 6.4 | 0.03 | 0.51 | 0.10 | 74 | 1017.3 |
| 20260507130821 | 12 | 39 | 1.6 | 8.0 | 0.03 | 0.53 | 0.10 | 75 | 1017.3 |
| 20260507130642 | 12 | 37 | 1.6 | 8.0 | 0.03 | 0.53 | 0.10 | 75 | 1017.4 |
| 20260507130421 | 12 | 41 | 1.6 | 8.0 | 0.03 | 0.53 | 0.10 | 74 | 1017.4 |
| 20260507130221 | 11 | 40 | 1.6 | 8.0 | 0.03 | 0.53 | 0.10 | 76 | 1017.4 |
| 20260507130021 | 11 | 43 | 3.2 | 8.0 | 0.03 | 0.53 | 0.10 | 76 | 1017.4 |
| 20260507125821 | 11 | 54 | 3.2 | 6.4 | 0.03 | 0.53 | 0.10 | 77 | 1017.4 |
| 20260507125642 | 11 | 52 | 3.2 | 11.3 | 0.03 | 0.53 | 0.10 | 77 | 1017.3 |
| 20260507125421 | 11 | 46 | 3.2 | 11.3 | 0.03 | 0.56 | 0.10 | 78 | 1017.3 |
| 20260507125221 | 11 | 42 | 3.2 | 11.3 | 0.03 | 0.56 | 0.10 | 78 | 1017.4 |
| 20260507125042 | 10 | 38 | 1.6 | 11.3 | 0.03 | 0.56 | 0.10 | 79 | 1017.4 |
| 20260507124821 | 10 | 31 | 1.6 | 11.3 | 0.00 | 0.53 | 0.10 | 79 | 1017.5 |
| 20260507124621 | 10 | 29 | 1.6 | 8.0 | 0.00 | 0.53 | 0.08 | 81 | 1017.5 |
| 20260507124421 | 10 | 33 | 1.6 | 8.0 | 0.00 | 0.53 | 0.08 | 81 | 1017.5 |
| 20260507124221 | 10 | 30 | 1.6 | 8.0 | 0.00 | 0.53 | 0.08 | 81 | 1017.5 |
| 20260507124021 | 10 | 34 | 1.6 | 8.0 | 0.00 | 0.56 | 0.08 | 81 | 1017.5 |
| 20260507123821 | 10 | 41 | 1.6 | 8.0 | 0.00 | 0.56 | 0.08 | 82 | 1017.5 |
| 20260507123621 | 10 | 38 | 1.6 | 8.0 | 0.00 | 0.56 | 0.08 | 81 | 1017.5 |
| 20260507123421 | 10 | 32 | 1.6 | 8.0 | 0.00 | 0.56 | 0.08 | 82 | 1017.4 |
| 20260507123221 | 10 | 30 | 1.6 | 8.0 | 0.00 | 0.56 | 0.08 | 82 | 1017.4 |
| 20260507123021 | 10 | 26 | 1.6 | 8.0 | 0.00 | 0.58 | 0.08 | 83 | 1017.4 |
| 20260507122842 | 10 | 22 | 1.6 | 8.0 | 0.00 | 0.58 | 0.08 | 83 | 1017.4 |
| 20260507122621 | 10 | 25 | 1.6 | 8.0 | 0.00 | 0.58 | 0.08 | 83 | 1017.4 |
| 20260507122421 | 10 | 25 | 1.6 | 8.0 | 0.00 | 0.58 | 0.08 | 83 | 1017.4 |
| 20260507122221 | 10 | 33 | 1.6 | 8.0 | 0.00 | 0.58 | 0.08 | 83 | 1017.3 |
| 20260507122021 | 10 | 37 | 1.6 | 6.4 | 0.00 | 0.61 | 0.08 | 83 | 1017.4 |
| 20260507121823 | 9 | 38 | 1.6 | 6.4 | 0.00 | 0.61 | 0.08 | 84 | 1017.4 |
| 20260507121621 | 9 | 39 | 1.6 | 6.4 | 0.00 | 0.61 | 0.08 | 84 | 1017.4 |
| 20260507121421 | 9 | 42 | 1.6 | 6.4 | 0.00 | 0.64 | 0.08 | 84 | 1017.4 |
| 20260507121221 | 9 | 30 | 1.6 | 11.3 | 0.00 | 0.64 | 0.08 | 84 | 1017.3 |
| 20260507121042 | 9 | 29 | 1.6 | 11.3 | 0.00 | 0.64 | 0.08 | 85 | 1017.4 |
| 20260507120821 | 9 | 29 | 1.6 | 11.3 | 0.00 | 0.66 | 0.08 | 86 | 1017.4 |
| 20260507120621 | 9 | 30 | 1.6 | 11.3 | 0.00 | 0.66 | 0.08 | 86 | 1017.4 |
| 20260507120421 | 8 | 32 | 1.6 | 11.3 | 0.00 | 0.69 | 0.08 | 86 | 1017.4 |
| 20260507120242 | 8 | 39 | 1.6 | 4.8 | 0.00 | 0.69 | 0.08 | 86 | 1017.4 |
| 20260507120021 | 8 | 42 | 0.0 | 4.8 | 0.00 | 0.71 | 0.08 | 87 | 1017.3 |
| 20260507115821 | 8 | 39 | 0.0 | 3.2 | 0.00 | 0.71 | 0.08 | 87 | 1017.3 |
| 20260507115621 | 8 | 37 | 0.0 | 3.2 | 0.00 | 0.71 | 0.08 | 87 | 1017.3 |
| 20260507115421 | 8 | 30 | 0.0 | 3.2 | 0.00 | 0.74 | 0.08 | 87 | 1017.3 |
| 20260507115221 | 8 | 31 | 0.0 | 3.2 | 0.00 | 0.74 | 0.08 | 88 | 1017.3 |
| 20260507115021 | 8 | 33 | 0.0 | 3.2 | 0.00 | 0.74 | 0.08 | 88 | 1017.3 |
| 20260507114821 | 8 | 37 | 0.0 | 3.2 | 0.00 | 0.76 | 0.08 | 88 | 1017.3 |
| 20260507114621 | 8 | 43 | 0.0 | 3.2 | 0.00 | 0.76 | 0.08 | 89 | 1017.2 |
| 20260507114421 | 8 | 20 | 0.0 | 3.2 | 0.00 | 0.79 | 0.08 | 89 | 1017.2 |
| 20260507114221 | 8 | 356 | 0.0 | 3.2 | 0.00 | 0.79 | 0.08 | 89 | 1017.2 |
| 20260507114021 | 8 | 236 | 0.0 | 1.6 | 0.00 | 0.79 | 0.08 | 89 | 1017.2 |
| 20260507113842 | 8 | 237 | 0.0 | 1.6 | 0.00 | 0.81 | 0.08 | 89 | 1017.1 |
| 20260507113621 | 8 | 264 | 0.0 | 1.6 | 0.00 | 0.81 | 0.08 | 89 | 1017.2 |
| 20260507113421 | 8 | 291 | 0.0 | 1.6 | 0.00 | 0.84 | 0.08 | 90 | 1017.2 |
| 20260507113221 | 8 | 0 | 0.0 | 0.0 | 0.00 | 0.84 | 0.08 | 90 | 1017.3 |
| 20260507113021 | 8 | 0 | 0.0 | 0.0 | 0.00 | 0.86 | 0.08 | 90 | 1017.1 |
| 20260507112843 | 7 | 0 | 0.0 | 0.0 | 0.00 | 0.86 | 0.08 | 90 | 1017.1 |
| 20260507112621 | 7 | 0 | 0.0 | 0.0 | 0.00 | 0.89 | 0.08 | 90 | 1017.0 |
| 20260507112421 | 7 | 0 | 0.0 | 0.0 | 0.00 | 0.89 | 0.08 | 90 | 1017.1 |
| 20260507112221 | 7 | 0 | 0.0 | 0.0 | 0.00 | 0.89 | 0.08 | 90 | 1017.1 |
| 20260507112021 | 7 | 0 | 0.0 | 0.0 | 0.00 | 0.91 | 0.08 | 90 | 1017.1 |
| 20260507111821 | 7 | 0 | 0.0 | 0.0 | 0.00 | 0.91 | 0.08 | 90 | 1017.1 |
| 20260507111642 | 7 | 0 | 0.0 | 0.0 | 0.00 | 0.94 | 0.08 | 90 | 1017.1 |
| 20260507111442 | 7 | 0 | 0.0 | 0.0 | 0.00 | 0.94 | 0.08 | 90 | 1017.1 |
| 20260507111221 | 7 | 0 | 0.0 | 0.0 | 0.00 | 0.97 | 0.08 | 90 | 1017.1 |
| 20260507111042 | 7 | 0 | 0.0 | 0.0 | 0.00 | 0.97 | 0.08 | 90 | 1017.0 |
| 20260507110821 | 7 | 0 | 0.0 | 0.0 | 0.03 | 0.99 | 0.08 | 90 | 1017.0 |
| 20260507110621 | 7 | 0 | 0.0 | 0.0 | 0.03 | 0.99 | 0.08 | 90 | 1017.0 |
| 20260507110421 | 7 | 0 | 0.0 | 0.0 | 0.03 | 0.99 | 0.08 | 90 | 1017.0 |
| 20260507110221 | 7 | 0 | 0.0 | 0.0 | 0.03 | 1.02 | 0.08 | 90 | 1016.9 |
| 20260507110021 | 7 | 0 | 0.0 | 0.0 | 0.03 | 1.02 | 0.08 | 90 | 1016.9 |
| 20260507105842 | 7 | 0 | 0.0 | 0.0 | 0.03 | 1.02 | 0.08 | 90 | 1016.8 |
| 20260507105621 | 7 | 0 | 0.0 | 0.0 | 0.03 | 1.02 | 0.08 | 90 | 1016.7 |
| 20260507105421 | 7 | 0 | 0.0 | 0.0 | 0.03 | 1.04 | 0.08 | 90 | 1016.8 |
| 20260507105221 | 7 | 0 | 0.0 | 0.0 | 0.03 | 1.04 | 0.08 | 89 | 1016.7 |
| 20260507105021 | 7 | 0 | 0.0 | 0.0 | 0.03 | 1.04 | 0.08 | 89 | 1016.8 |
| 20260507104821 | 8 | 0 | 0.0 | 0.0 | 0.03 | 1.04 | 0.08 | 89 | 1016.7 |
| 20260507104621 | 8 | 0 | 0.0 | 0.0 | 0.03 | 1.07 | 0.08 | 89 | 1016.8 |
| 20260507104421 | 8 | 0 | 0.0 | 0.0 | 0.03 | 1.07 | 0.08 | 89 | 1016.7 |
| 20260507104221 | 8 | 0 | 0.0 | 0.0 | 0.03 | 1.07 | 0.08 | 89 | 1016.7 |
| 20260507104021 | 8 | 0 | 0.0 | 0.0 | 0.03 | 1.07 | 0.08 | 89 | 1016.7 |
| 20260507103842 | 8 | 0 | 0.0 | 0.0 | 0.03 | 1.07 | 0.08 | 89 | 1016.6 |
| 20260507103642 | 8 | 0 | 0.0 | 0.0 | 0.03 | 1.07 | 0.08 | 89 | 1016.7 |
| 20260507103421 | 8 | 0 | 0.0 | 0.0 | 0.03 | 1.09 | 0.08 | 88 | 1016.6 |
| 20260507103242 | 8 | 0 | 0.0 | 0.0 | 0.03 | 1.09 | 0.08 | 88 | 1016.5 |
| 20260507103042 | 8 | 0 | 0.0 | 0.0 | 0.03 | 1.09 | 0.08 | 88 | 1016.6 |
| 20260507102821 | 8 | 0 | 0.0 | 0.0 | 0.03 | 1.09 | 0.08 | 88 | 1016.5 |
| 20260507102621 | 8 | 0 | 0.0 | 0.0 | 0.03 | 1.09 | 0.08 | 88 | 1016.5 |
| 20260507102421 | 8 | 0 | 0.0 | 0.0 | 0.03 | 1.09 | 0.08 | 88 | 1016.5 |
| 20260507102242 | 8 | 0 | 0.0 | 0.0 | 0.03 | 1.09 | 0.08 | 88 | 1016.5 |
| 20260507102021 | 8 | 0 | 0.0 | 0.0 | 0.03 | 1.09 | 0.08 | 88 | 1016.5 |
| 20260507101821 | 8 | 0 | 0.0 | 0.0 | 0.03 | 1.09 | 0.08 | 88 | 1016.6 |
| 20260507101621 | 8 | 0 | 0.0 | 0.0 | 0.03 | 1.12 | 0.08 | 88 | 1016.5 |
| 20260507101421 | 8 | 0 | 0.0 | 0.0 | 0.03 | 1.12 | 0.08 | 87 | 1016.4 |
| 20260507101221 | 8 | 0 | 0.0 | 0.0 | 0.03 | 1.12 | 0.08 | 87 | 1016.4 |
| 20260507101021 | 8 | 0 | 0.0 | 0.0 | 0.03 | 1.12 | 0.08 | 87 | 1016.5 |
| 20260507100821 | 8 | 0 | 0.0 | 0.0 | 0.00 | 1.12 | 0.05 | 87 | 1016.5 |
| 20260507100621 | 8 | 0 | 0.0 | 0.0 | 0.00 | 1.12 | 0.05 | 87 | 1016.5 |
| 20260507100421 | 8 | 0 | 0.0 | 0.0 | 0.00 | 1.12 | 0.05 | 87 | 1016.4 |
| 20260507100221 | 8 | 0 | 0.0 | 0.0 | 0.00 | 1.12 | 0.05 | 87 | 1016.4 |
| 20260507100042 | 8 | 0 | 0.0 | 0.0 | 0.00 | 1.14 | 0.05 | 87 | 1016.4 |
| 20260507095821 | 8 | 0 | 0.0 | 0.0 | 0.00 | 1.14 | 0.05 | 87 | 1016.4 |
| 20260507095621 | 8 | 0 | 0.0 | 0.0 | 0.00 | 1.14 | 0.05 | 87 | 1016.4 |
| 20260507095421 | 8 | 0 | 0.0 | 0.0 | 0.00 | 1.17 | 0.05 | 87 | 1016.4 |
| 20260507095221 | 8 | 0 | 0.0 | 0.0 | 0.00 | 1.17 | 0.05 | 87 | 1016.3 |
| 20260507095021 | 8 | 0 | 0.0 | 0.0 | 0.00 | 1.17 | 0.05 | 87 | 1016.3 |
| 20260507094822 | 8 | 0 | 0.0 | 0.0 | 0.00 | 1.19 | 0.05 | 87 | 1016.3 |
| 20260507094621 | 8 | 0 | 0.0 | 0.0 | 0.00 | 1.19 | 0.05 | 87 | 1016.3 |
| 20260507094421 | 8 | 0 | 0.0 | 0.0 | 0.00 | 1.22 | 0.05 | 87 | 1016.3 |
| 20260507094221 | 8 | 0 | 0.0 | 0.0 | 0.00 | 1.22 | 0.05 | 87 | 1016.4 |
| 20260507094021 | 9 | 0 | 0.0 | 0.0 | 0.00 | 1.24 | 0.05 | 87 | 1016.4 |
| 20260507093821 | 9 | 0 | 0.0 | 0.0 | 0.00 | 1.24 | 0.05 | 87 | 1016.4 |
| 20260507093621 | 9 | 0 | 0.0 | 0.0 | 0.00 | 1.27 | 0.05 | 87 | 1016.3 |
| 20260507093421 | 9 | 0 | 0.0 | 0.0 | 0.00 | 1.27 | 0.05 | 87 | 1016.3 |
| 20260507093221 | 9 | 0 | 0.0 | 0.0 | 0.00 | 1.30 | 0.05 | 87 | 1016.3 |
| 20260507093021 | 9 | 0 | 0.0 | 0.0 | 0.00 | 1.30 | 0.05 | 87 | 1016.3 |
| 20260507092821 | 9 | 0 | 0.0 | 0.0 | 0.00 | 1.32 | 0.05 | 87 | 1016.3 |
| 20260507092621 | 9 | 0 | 0.0 | 0.0 | 0.00 | 1.35 | 0.05 | 87 | 1016.3 |
| 20260507092421 | 9 | 0 | 0.0 | 0.0 | 0.00 | 1.37 | 0.05 | 87 | 1016.1 |
| 20260507092221 | 9 | 0 | 0.0 | 0.0 | 0.00 | 1.37 | 0.05 | 87 | 1016.1 |
| 20260507092042 | 9 | 0 | 0.0 | 0.0 | 0.00 | 1.40 | 0.05 | 87 | 1016.1 |
| 20260507091821 | 9 | 0 | 0.0 | 0.0 | 0.00 | 1.42 | 0.05 | 87 | 1016.1 |
| 20260507091621 | 9 | 0 | 0.0 | 0.0 | 0.00 | 1.45 | 0.05 | 87 | 1016.1 |
| 20260507091421 | 9 | 0 | 0.0 | 0.0 | 0.00 | 1.47 | 0.05 | 87 | 1016.1 |
| 20260507091221 | 9 | 0 | 0.0 | 0.0 | 0.00 | 1.50 | 0.05 | 87 | 1016.2 |
| 20260507091021 | 9 | 0 | 0.0 | 0.0 | 0.00 | 1.52 | 0.05 | 87 | 1016.2 |
| 20260507090821 | 9 | 0 | 0.0 | 0.0 | 0.00 | 1.57 | 0.05 | 87 | 1016.2 |
| 20260507090622 | 9 | 0 | 0.0 | 0.0 | 0.00 | 1.60 | 0.05 | 87 | 1016.2 |
| 20260507090421 | 9 | 0 | 0.0 | 0.0 | 0.00 | 1.60 | 0.05 | 87 | 1016.2 |
| 20260507090222 | 9 | 0 | 0.0 | 0.0 | 0.00 | 1.60 | 0.05 | 87 | 1016.2 |
| 20260507090021 | 9 | 0 | 0.0 | 0.0 | 0.00 | 1.60 | 0.05 | 87 | 1016.2 |
| 20260507085821 | 9 | 0 | 0.0 | 0.0 | 0.00 | 1.63 | 0.05 | 87 | 1016.2 |
| 20260507085622 | 9 | 0 | 0.0 | 0.0 | 0.00 | 1.68 | 0.05 | 87 | 1016.1 |
| 20260507085442 | 9 | 0 | 0.0 | 0.0 | 0.00 | 1.68 | 0.05 | 87 | 1016.1 |
| 20260507085221 | 9 | 0 | 0.0 | 0.0 | 0.00 | 1.70 | 0.05 | 87 | 1016.0 |
| 20260507085021 | 9 | 0 | 0.0 | 0.0 | 0.00 | 1.73 | 0.05 | 87 | 1016.0 |
| 20260507084842 | 9 | 23 | 0.0 | 1.6 | 0.00 | 1.80 | 0.05 | 87 | 1016.0 |
| 20260507084621 | 9 | 23 | 0.0 | 1.6 | 0.00 | 1.85 | 0.05 | 87 | 1015.8 |
| 20260507084421 | 9 | 23 | 0.0 | 1.6 | 0.03 | 1.93 | 0.05 | 88 | 1015.9 |
| 20260507084221 | 9 | 23 | 0.0 | 1.6 | 0.03 | 1.96 | 0.05 | 88 | 1016.0 |
| 20260507084021 | 9 | 23 | 0.0 | 1.6 | 0.03 | 1.96 | 0.05 | 88 | 1015.9 |
| 20260507083821 | 9 | 0 | 0.0 | 0.0 | 0.03 | 1.96 | 0.05 | 88 | 1015.9 |
| 20260507083621 | 9 | 0 | 0.0 | 0.0 | 0.03 | 1.98 | 0.05 | 88 | 1015.9 |
| 20260507083421 | 9 | 0 | 0.0 | 0.0 | 0.03 | 2.01 | 0.05 | 88 | 1016.0 |
| 20260507083221 | 9 | 0 | 0.0 | 0.0 | 0.03 | 2.03 | 0.05 | 88 | 1015.8 |
| 20260507083022 | 9 | 293 | 0.0 | 1.6 | 0.03 | 2.08 | 0.05 | 88 | 1015.8 |
| 20260507082821 | 9 | 293 | 0.0 | 1.6 | 0.03 | 2.13 | 0.05 | 89 | 1015.9 |
| 20260507082621 | 9 | 293 | 0.0 | 1.6 | 0.03 | 2.16 | 0.05 | 89 | 1016.0 |
| 20260507082421 | 9 | 293 | 0.0 | 1.6 | 0.03 | 2.16 | 0.05 | 89 | 1016.0 |
| 20260507082221 | 9 | 293 | 0.0 | 1.6 | 0.03 | 2.18 | 0.05 | 89 | 1015.9 |
| 20260507082021 | 9 | 0 | 0.0 | 0.0 | 0.03 | 2.21 | 0.05 | 89 | 1016.0 |
| 20260507081821 | 9 | 293 | 0.0 | 1.6 | 0.03 | 2.21 | 0.05 | 89 | 1016.0 |
| 20260507081622 | 9 | 293 | 0.0 | 1.6 | 0.03 | 2.21 | 0.05 | 90 | 1016.1 |
| 20260507081421 | 9 | 293 | 0.0 | 1.6 | 0.03 | 2.24 | 0.05 | 90 | 1016.1 |
| 20260507081221 | 9 | 293 | 0.0 | 1.6 | 0.03 | 2.24 | 0.05 | 90 | 1016.1 |
| 20260507081021 | 9 | 293 | 0.0 | 1.6 | 0.03 | 2.24 | 0.05 | 90 | 1016.1 |
| 20260507080821 | 9 | 0 | 0.0 | 0.0 | 0.03 | 2.24 | 0.05 | 91 | 1016.1 |
| 20260507080621 | 9 | 0 | 0.0 | 0.0 | 0.03 | 2.24 | 0.05 | 91 | 1016.1 |
| 20260507080421 | 8 | 0 | 0.0 | 0.0 | 0.03 | 2.24 | 0.05 | 91 | 1016.1 |
| 20260507080221 | 9 | 0 | 0.0 | 0.0 | 0.03 | 2.24 | 0.05 | 91 | 1016.1 |
| 20260507080021 | 9 | 0 | 0.0 | 0.0 | 0.03 | 2.24 | 0.05 | 91 | 1016.1 |
| 20260507075821 | 9 | 0 | 0.0 | 0.0 | 0.03 | 2.24 | 0.05 | 91 | 1016.1 |
| 20260507075621 | 9 | 0 | 0.0 | 0.0 | 0.03 | 2.24 | 0.05 | 91 | 1016.1 |
| 20260507075421 | 9 | 0 | 0.0 | 0.0 | 0.03 | 2.24 | 0.05 | 91 | 1016.1 |
| 20260507075221 | 9 | 0 | 0.0 | 0.0 | 0.03 | 2.26 | 0.05 | 91 | 1016.2 |
| 20260507075021 | 9 | 0 | 0.0 | 0.0 | 0.03 | 2.26 | 0.05 | 91 | 1016.0 |
| 20260507074842 | 9 | 0 | 0.0 | 0.0 | 0.03 | 2.29 | 0.05 | 91 | 1016.0 |
| 20260507074621 | 9 | 277 | 0.0 | 1.6 | 0.03 | 2.36 | 0.05 | 91 | 1016.1 |
| 20260507074421 | 9 | 277 | 0.0 | 1.6 | 0.00 | 2.39 | 0.03 | 91 | 1016.0 |
| 20260507074221 | 9 | 277 | 0.0 | 1.6 | 0.00 | 2.39 | 0.03 | 91 | 1016.0 |
| 20260507074022 | 9 | 277 | 0.0 | 1.6 | 0.00 | 2.41 | 0.03 | 91 | 1016.0 |
| 20260507073821 | 9 | 277 | 0.0 | 1.6 | 0.00 | 2.44 | 0.03 | 91 | 1016.1 |
| 20260507073642 | 9 | 277 | 0.0 | 1.6 | 0.00 | 2.44 | 0.03 | 91 | 1016.2 |
| 20260507073442 | 9 | 277 | 0.0 | 1.6 | 0.00 | 2.44 | 0.03 | 91 | 1016.2 |
| 20260507073222 | 9 | 277 | 0.0 | 1.6 | 0.00 | 2.44 | 0.03 | 91 | 1016.2 |
| 20260507073021 | 10 | 277 | 0.0 | 1.6 | 0.00 | 2.44 | 0.03 | 91 | 1016.3 |
| 20260507072821 | 10 | 277 | 0.0 | 1.6 | 0.00 | 2.44 | 0.03 | 90 | 1016.3 |
| 20260507072621 | 10 | 0 | 0.0 | 0.0 | 0.00 | 2.44 | 0.03 | 90 | 1016.3 |
| 20260507072421 | 10 | 0 | 0.0 | 0.0 | 0.00 | 2.46 | 0.03 | 90 | 1016.3 |
| 20260507072221 | 10 | 0 | 0.0 | 0.0 | 0.00 | 2.49 | 0.03 | 90 | 1016.3 |
| 20260507072042 | 10 | 0 | 0.0 | 0.0 | 0.00 | 2.51 | 0.03 | 90 | 1016.3 |
| 20260507071821 | 10 | 0 | 0.0 | 0.0 | 0.00 | 2.51 | 0.03 | 90 | 1016.3 |
| 20260507071621 | 10 | 0 | 0.0 | 0.0 | 0.00 | 2.51 | 0.03 | 90 | 1016.4 |
| 20260507071424 | 10 | 0 | 0.0 | 0.0 | 0.00 | 2.54 | 0.03 | 90 | 1016.4 |
| 20260507071221 | 10 | 0 | 0.0 | 0.0 | 0.00 | 2.54 | 0.03 | 90 | 1016.5 |
| 20260507071021 | 10 | 0 | 0.0 | 0.0 | 0.00 | 2.54 | 0.03 | 89 | 1016.4 |
| 20260507070821 | 10 | 277 | 0.0 | 1.6 | 0.00 | 2.54 | 0.03 | 89 | 1016.3 |
| 20260507070621 | 10 | 277 | 0.0 | 1.6 | 0.00 | 2.54 | 0.03 | 89 | 1016.1 |
| 20260507070423 | 10 | 277 | 0.0 | 1.6 | 0.00 | 2.54 | 0.03 | 89 | 1016.2 |
| 20260507070221 | 10 | 277 | 0.0 | 1.6 | 0.00 | 2.54 | 0.03 | 89 | 1016.2 |
| 20260507070021 | 10 | 277 | 0.0 | 1.6 | 0.00 | 2.54 | 0.03 | 89 | 1016.1 |
| 20260507065821 | 10 | 279 | 0.0 | 1.6 | 0.00 | 2.54 | 0.03 | 89 | 1016.0 |
| 20260507065621 | 10 | 279 | 0.0 | 1.6 | 0.00 | 2.54 | 0.03 | 90 | 1015.9 |
| 20260507065421 | 10 | 280 | 0.0 | 1.6 | 0.00 | 2.54 | 0.03 | 90 | 1015.7 |
| 20260507065221 | 10 | 281 | 0.0 | 1.6 | 0.00 | 2.54 | 0.03 | 90 | 1015.7 |
| 20260507065021 | 10 | 281 | 0.0 | 1.6 | 0.00 | 2.54 | 0.03 | 90 | 1015.7 |
| 20260507064821 | 10 | 281 | 0.0 | 1.6 | 0.00 | 2.54 | 0.03 | 90 | 1015.6 |
| 20260507064621 | 10 | 281 | 0.0 | 1.6 | 0.00 | 2.54 | 0.03 | 90 | 1015.6 |
| 20260507064422 | 10 | 283 | 0.0 | 1.6 | 0.00 | 2.54 | 0.03 | 90 | 1015.6 |
| 20260507064221 | 10 | 285 | 0.0 | 1.6 | 0.00 | 2.54 | 0.03 | 90 | 1015.8 |
| 20260507064021 | 10 | 285 | 0.0 | 1.6 | 0.03 | 2.54 | 0.03 | 90 | 1015.9 |
| 20260507063843 | 10 | 285 | 0.0 | 1.6 | 0.03 | 2.54 | 0.03 | 90 | 1015.9 |
| 20260507063642 | 10 | 285 | 0.0 | 1.6 | 0.03 | 2.54 | 0.03 | 90 | 1016.0 |
| 20260507063421 | 10 | 286 | 0.0 | 1.6 | 0.03 | 2.57 | 0.03 | 91 | 1015.9 |
| 20260507063242 | 10 | 0 | 0.0 | 0.0 | 0.03 | 2.57 | 0.03 | 91 | 1015.7 |
| 20260507063021 | 10 | 0 | 0.0 | 0.0 | 0.03 | 2.57 | 0.03 | 91 | 1015.6 |
| 20260507062821 | 10 | 0 | 0.0 | 0.0 | 0.03 | 2.59 | 0.03 | 92 | 1015.7 |
| 20260507062621 | 10 | 0 | 0.0 | 0.0 | 0.03 | 2.59 | 0.03 | 92 | 1015.7 |
| 20260507062421 | 10 | 0 | 0.0 | 0.0 | 0.03 | 2.59 | 0.03 | 92 | 1015.7 |
| 20260507062221 | 10 | 0 | 0.0 | 0.0 | 0.03 | 2.59 | 0.03 | 92 | 1015.8 |
| 20260507062022 | 10 | 0 | 0.0 | 0.0 | 0.03 | 2.62 | 0.03 | 92 | 1015.8 |
| 20260507061821 | 10 | 0 | 0.0 | 0.0 | 0.03 | 2.62 | 0.03 | 92 | 1015.7 |
| 20260507061621 | 10 | 0 | 0.0 | 0.0 | 0.03 | 2.62 | 0.03 | 92 | 1015.7 |
| 20260507061421 | 10 | 0 | 0.0 | 0.0 | 0.03 | 2.62 | 0.03 | 92 | 1015.9 |
| 20260507061221 | 10 | 0 | 0.0 | 0.0 | 0.03 | 2.62 | 0.03 | 92 | 1015.9 |
| 20260507061021 | 10 | 0 | 0.0 | 0.0 | 0.03 | 2.62 | 0.03 | 92 | 1015.9 |
| 20260507060821 | 10 | 0 | 0.0 | 0.0 | 0.03 | 2.62 | 0.03 | 92 | 1016.0 |
| 20260507060642 | 10 | 0 | 0.0 | 0.0 | 0.03 | 2.62 | 0.03 | 92 | 1016.0 |
| 20260507060442 | 10 | 0 | 0.0 | 0.0 | 0.03 | 2.64 | 0.03 | 92 | 1016.1 |
| 20260507060221 | 10 | 0 | 0.0 | 0.0 | 0.03 | 2.64 | 0.03 | 92 | 1016.1 |
| 20260507060021 | 10 | 0 | 0.0 | 0.0 | 0.03 | 2.69 | 0.03 | 92 | 1016.2 |
| 20260507055821 | 10 | 0 | 0.0 | 0.0 | 0.03 | 2.79 | 0.03 | 92 | 1016.2 |
| 20260507055621 | 10 | 0 | 0.0 | 0.0 | 0.03 | 2.79 | 0.03 | 91 | 1016.1 |
| 20260507055421 | 10 | 0 | 0.0 | 0.0 | 0.03 | 2.82 | 0.03 | 91 | 1016.2 |
| 20260507055221 | 10 | 0 | 0.0 | 0.0 | 0.03 | 2.84 | 0.03 | 91 | 1016.1 |
| 20260507055021 | 10 | 0 | 0.0 | 0.0 | 0.03 | 2.87 | 0.03 | 91 | 1016.0 |
| 20260507054821 | 10 | 0 | 0.0 | 0.0 | 0.03 | 3.05 | 0.03 | 91 | 1016.1 |
| 20260507054621 | 10 | 0 | 0.0 | 0.0 | 0.03 | 3.10 | 0.03 | 91 | 1016.2 |
| 20260507054421 | 10 | 0 | 0.0 | 0.0 | 0.03 | 3.10 | 0.03 | 91 | 1016.3 |
| 20260507054221 | 10 | 0 | 0.0 | 0.0 | 0.03 | 3.10 | 0.03 | 91 | 1016.3 |
| 20260507054021 | 10 | 0 | 0.0 | 0.0 | 0.00 | 3.07 | 0.00 | 91 | 1016.4 |
| 20260507053842 | 10 | 0 | 0.0 | 0.0 | 0.00 | 3.07 | 0.00 | 91 | 1016.4 |
| 20260507053621 | 10 | 0 | 0.0 | 0.0 | 0.00 | 3.07 | 0.00 | 91 | 1016.4 |
| 20260507053421 | 10 | 0 | 0.0 | 0.0 | 0.00 | 3.07 | 0.00 | 90 | 1016.4 |
| 20260507053221 | 10 | 0 | 0.0 | 0.0 | 0.00 | 3.07 | 0.00 | 90 | 1016.3 |
| 20260507053021 | 10 | 0 | 0.0 | 0.0 | 0.00 | 3.07 | 0.00 | 90 | 1016.2 |
| 20260507052821 | 10 | 0 | 0.0 | 0.0 | 0.00 | 3.07 | 0.00 | 90 | 1016.1 |
| 20260507052623 | 10 | 0 | 0.0 | 0.0 | 0.00 | 3.07 | 0.00 | 89 | 1016.1 |
| 20260507052421 | 10 | 0 | 0.0 | 0.0 | 0.00 | 3.07 | 0.00 | 89 | 1016.2 |
| 20260507052242 | 10 | 0 | 0.0 | 0.0 | 0.00 | 3.07 | 0.00 | 89 | 1016.3 |
| 20260507052021 | 10 | 0 | 0.0 | 0.0 | 0.00 | 3.07 | 0.00 | 89 | 1016.3 |
| 20260507051821 | 10 | 0 | 0.0 | 0.0 | 0.00 | 3.07 | 0.00 | 89 | 1016.2 |
| 20260507051622 | 10 | 0 | 0.0 | 0.0 | 0.00 | 3.07 | 0.00 | 89 | 1016.2 |
| 20260507051421 | 10 | 0 | 0.0 | 0.0 | 0.00 | 3.07 | 0.00 | 89 | 1016.3 |
| 20260507051242 | 10 | 0 | 0.0 | 0.0 | 0.00 | 3.07 | 0.00 | 89 | 1016.5 |
| 20260507051021 | 10 | 0 | 0.0 | 0.0 | 0.00 | 3.07 | 0.00 | 89 | 1016.5 |
| 20260507050821 | 10 | 0 | 0.0 | 0.0 | 0.00 | 3.07 | 0.00 | 89 | 1016.4 |
| 20260507050621 | 10 | 0 | 0.0 | 0.0 | 0.00 | 3.07 | 0.00 | 88 | 1016.4 |
| 20260507050442 | 10 | 0 | 0.0 | 0.0 | 0.00 | 3.07 | 0.00 | 88 | 1016.4 |
| 20260507050221 | 10 | 0 | 0.0 | 0.0 | 0.00 | 3.07 | 0.00 | 88 | 1016.5 |
| 20260507050042 | 10 | 0 | 0.0 | 0.0 | 0.00 | 3.07 | 0.00 | 88 | 1016.6 |
| 20260507045821 | 10 | 0 | 0.0 | 0.0 | 0.00 | 3.07 | 3.07 | 88 | 1016.7 |
| 20260507045621 | 11 | 0 | 0.0 | 0.0 | 0.00 | 3.07 | 3.07 | 88 | 1016.7 |
| 20260507045421 | 11 | 0 | 0.0 | 0.0 | 0.00 | 3.07 | 3.07 | 88 | 1016.6 |
| 20260507045222 | 11 | 0 | 0.0 | 0.0 | 0.00 | 3.07 | 3.07 | 88 | 1016.6 |
| 20260507045021 | 11 | 0 | 0.0 | 0.0 | 0.00 | 3.07 | 3.07 | 88 | 1016.6 |
| 20260507044842 | 11 | 0 | 0.0 | 0.0 | 0.03 | 3.07 | 3.07 | 88 | 1016.6 |
| 20260507044621 | 11 | 0 | 0.0 | 0.0 | 0.03 | 3.07 | 3.07 | 88 | 1016.5 |
| 20260507044421 | 11 | 0 | 0.0 | 0.0 | 0.03 | 3.07 | 3.07 | 88 | 1016.5 |
| 20260507044221 | 11 | 0 | 0.0 | 0.0 | 0.03 | 3.07 | 3.07 | 88 | 1016.4 |
| 20260507044021 | 11 | 0 | 0.0 | 0.0 | 0.03 | 3.07 | 3.07 | 88 | 1016.4 |
| 20260507043821 | 11 | 0 | 0.0 | 0.0 | 0.03 | 3.07 | 3.07 | 88 | 1016.3 |
| 20260507043621 | 11 | 0 | 0.0 | 0.0 | 0.03 | 3.07 | 3.07 | 88 | 1016.3 |
| 20260507043421 | 11 | 0 | 0.0 | 0.0 | 0.03 | 3.07 | 3.07 | 88 | 1016.3 |
| 20260507043221 | 11 | 0 | 0.0 | 0.0 | 0.03 | 3.07 | 3.07 | 88 | 1016.3 |
| 20260507043022 | 11 | 0 | 0.0 | 0.0 | 0.03 | 3.07 | 3.07 | 87 | 1016.4 |
| 20260507042843 | 11 | 0 | 0.0 | 0.0 | 0.03 | 3.07 | 3.07 | 87 | 1016.2 |
| 20260507042621 | 11 | 0 | 0.0 | 0.0 | 0.03 | 3.07 | 3.07 | 87 | 1016.2 |
| 20260507042421 | 11 | 0 | 0.0 | 0.0 | 0.03 | 3.07 | 3.07 | 87 | 1016.2 |
| 20260507042221 | 11 | 0 | 0.0 | 0.0 | 0.03 | 3.07 | 3.07 | 87 | 1016.2 |
| 20260507042021 | 11 | 0 | 0.0 | 0.0 | 0.03 | 3.07 | 3.07 | 87 | 1016.2 |
| 20260507041821 | 11 | 0 | 0.0 | 0.0 | 0.03 | 3.07 | 3.07 | 87 | 1016.2 |
| 20260507041622 | 11 | 0 | 0.0 | 0.0 | 0.03 | 3.07 | 3.07 | 87 | 1016.2 |
| 20260507041442 | 11 | 0 | 0.0 | 0.0 | 0.03 | 3.07 | 3.07 | 87 | 1016.1 |
| 20260507041221 | 11 | 0 | 0.0 | 0.0 | 0.03 | 3.07 | 3.07 | 87 | 1016.1 |
| 20260507041021 | 11 | 0 | 0.0 | 0.0 | 0.03 | 3.07 | 3.07 | 87 | 1016.0 |
| 20260507040842 | 11 | 44 | 0.0 | 1.6 | 0.03 | 3.07 | 3.07 | 87 | 1015.9 |
| 20260507040621 | 11 | 44 | 0.0 | 1.6 | 0.03 | 3.07 | 3.07 | 87 | 1015.7 |
| 20260507040442 | 11 | 44 | 0.0 | 1.6 | 0.03 | 3.07 | 3.07 | 87 | 1015.8 |
| 20260507040222 | 11 | 42 | 0.0 | 1.6 | 0.03 | 3.07 | 3.07 | 87 | 1015.7 |
| 20260507040021 | 11 | 35 | 0.0 | 3.2 | 0.03 | 3.07 | 3.07 | 87 | 1015.6 |
| 20260507035821 | 11 | 36 | 0.0 | 3.2 | 0.03 | 3.07 | 3.07 | 87 | 1015.7 |
| 20260507035621 | 11 | 37 | 0.0 | 3.2 | 0.03 | 3.07 | 3.07 | 87 | 1015.6 |
| 20260507035421 | 11 | 39 | 0.0 | 3.2 | 0.03 | 3.07 | 3.07 | 87 | 1015.7 |
| 20260507035221 | 11 | 39 | 0.0 | 3.2 | 0.03 | 3.07 | 3.07 | 88 | 1016.0 |
| 20260507035021 | 11 | 47 | 0.0 | 3.2 | 0.03 | 3.07 | 3.07 | 88 | 1015.9 |
| 20260507034821 | 11 | 51 | 0.0 | 3.2 | 0.00 | 3.05 | 3.05 | 88 | 1016.0 |
| 20260507034622 | 11 | 53 | 0.0 | 3.2 | 0.00 | 3.05 | 3.05 | 88 | 1016.0 |
| 20260507034443 | 11 | 60 | 0.0 | 3.2 | 0.00 | 3.05 | 3.05 | 88 | 1016.0 |
| 20260507034221 | 11 | 61 | 0.0 | 3.2 | 0.00 | 3.05 | 3.05 | 88 | 1016.0 |
| 20260507034021 | 11 | 70 | 0.0 | 1.6 | 0.00 | 3.05 | 3.05 | 88 | 1016.1 |
| 20260507033842 | 11 | 32 | 0.0 | 1.6 | 0.00 | 3.05 | 3.05 | 89 | 1016.3 |
| 20260507033642 | 11 | 14 | 0.0 | 1.6 | 0.00 | 3.05 | 3.05 | 89 | 1016.3 |
| 20260507033442 | 11 | 14 | 0.0 | 1.6 | 0.00 | 3.05 | 3.05 | 89 | 1016.4 |
| 20260507033221 | 11 | 14 | 0.0 | 1.6 | 0.00 | 3.07 | 3.05 | 89 | 1016.4 |
| 20260507033021 | 11 | 356 | 0.0 | 1.6 | 0.00 | 3.07 | 3.05 | 90 | 1016.4 |
| 20260507032821 | 11 | 331 | 0.0 | 1.6 | 0.00 | 3.07 | 3.05 | 90 | 1016.4 |
| 20260507032621 | 11 | 302 | 0.0 | 1.6 | 0.00 | 3.07 | 3.05 | 90 | 1016.3 |
| 20260507032421 | 11 | 302 | 0.0 | 1.6 | 0.00 | 3.07 | 3.05 | 91 | 1016.2 |
| 20260507032221 | 11 | 288 | 0.0 | 1.6 | 0.00 | 3.07 | 3.05 | 91 | 1016.2 |
| 20260507032042 | 11 | 288 | 0.0 | 1.6 | 0.00 | 3.07 | 3.05 | 91 | 1016.1 |
| 20260507031821 | 11 | 288 | 0.0 | 1.6 | 0.00 | 3.07 | 3.05 | 91 | 1016.1 |
| 20260507031642 | 11 | 0 | 0.0 | 0.0 | 0.00 | 3.07 | 3.05 | 91 | 1016.1 |
| 20260507031443 | 11 | 0 | 0.0 | 0.0 | 0.00 | 3.07 | 3.05 | 92 | 1016.0 |
| 20260507031221 | 11 | 9 | 0.0 | 1.6 | 0.00 | 3.07 | 3.05 | 92 | 1016.0 |
| 20260507031042 | 11 | 9 | 0.0 | 1.6 | 0.00 | 3.07 | 3.05 | 92 | 1015.8 |
| 20260507030821 | 11 | 9 | 0.0 | 1.6 | 0.03 | 3.07 | 3.05 | 92 | 1015.8 |
| 20260507030621 | 11 | 9 | 0.0 | 1.6 | 0.03 | 3.07 | 3.05 | 93 | 1015.7 |
| 20260507030421 | 11 | 0 | 0.0 | 0.0 | 0.03 | 3.07 | 3.05 | 93 | 1015.6 |
| 20260507030221 | 11 | 0 | 0.0 | 0.0 | 0.03 | 3.07 | 3.05 | 93 | 1015.6 |
| 20260507030021 | 11 | 0 | 0.0 | 0.0 | 0.03 | 3.07 | 3.05 | 94 | 1015.7 |
| 20260507025821 | 11 | 0 | 0.0 | 0.0 | 0.03 | 3.07 | 3.05 | 94 | 1015.9 |
| 20260507025622 | 11 | 0 | 0.0 | 0.0 | 0.03 | 3.07 | 3.05 | 94 | 1016.0 |
| 20260507025421 | 11 | 0 | 0.0 | 0.0 | 0.03 | 3.07 | 3.05 | 94 | 1016.0 |
| 20260507025221 | 11 | 0 | 0.0 | 0.0 | 0.03 | 3.07 | 3.05 | 94 | 1016.1 |
| 20260507025021 | 11 | 0 | 0.0 | 0.0 | 0.03 | 3.07 | 3.05 | 94 | 1016.2 |
| 20260507024821 | 11 | 0 | 0.0 | 0.0 | 0.03 | 3.07 | 3.05 | 94 | 1016.2 |
| 20260507024642 | 11 | 0 | 0.0 | 0.0 | 0.03 | 3.07 | 3.05 | 94 | 1016.3 |
| 20260507024421 | 11 | 0 | 0.0 | 0.0 | 0.03 | 3.07 | 3.05 | 94 | 1016.3 |
| 20260507024221 | 11 | 0 | 0.0 | 0.0 | 0.03 | 3.07 | 3.05 | 94 | 1016.4 |
| 20260507024021 | 11 | 0 | 0.0 | 0.0 | 0.03 | 3.07 | 3.05 | 94 | 1016.4 |
| 20260507023821 | 11 | 0 | 0.0 | 0.0 | 0.03 | 3.07 | 3.05 | 94 | 1016.3 |
| 20260507023621 | 11 | 0 | 0.0 | 0.0 | 0.03 | 3.07 | 3.05 | 94 | 1016.4 |
| 20260507023421 | 11 | 0 | 0.0 | 0.0 | 0.03 | 3.07 | 3.05 | 94 | 1016.3 |
| 20260507023221 | 11 | 0 | 0.0 | 0.0 | 0.03 | 3.07 | 3.05 | 94 | 1016.2 |
| 20260507023042 | 11 | 0 | 0.0 | 0.0 | 0.03 | 3.07 | 3.05 | 94 | 1016.3 |
| 20260507022821 | 11 | 0 | 0.0 | 0.0 | 0.03 | 3.07 | 3.05 | 94 | 1016.5 |
| 20260507022621 | 11 | 0 | 0.0 | 0.0 | 0.03 | 3.07 | 3.05 | 94 | 1016.4 |
| 20260507022422 | 11 | 0 | 0.0 | 0.0 | 0.03 | 3.07 | 3.05 | 94 | 1016.4 |
| 20260507022221 | 11 | 0 | 0.0 | 0.0 | 0.03 | 3.07 | 3.05 | 94 | 1016.4 |
| 20260507022021 | 11 | 0 | 0.0 | 0.0 | 0.03 | 3.07 | 3.05 | 94 | 1016.4 |
| 20260507021842 | 11 | 0 | 0.0 | 0.0 | 0.03 | 3.07 | 3.05 | 94 | 1016.4 |
| 20260507021621 | 11 | 0 | 0.0 | 0.0 | 0.03 | 3.07 | 3.05 | 94 | 1016.4 |
| 20260507021421 | 11 | 0 | 0.0 | 0.0 | 0.03 | 3.07 | 3.05 | 93 | 1016.4 |
| 20260507021221 | 11 | 0 | 0.0 | 0.0 | 0.03 | 3.07 | 3.05 | 93 | 1016.4 |
| 20260507021042 | 11 | 0 | 0.0 | 0.0 | 0.03 | 3.07 | 3.05 | 93 | 1016.5 |
| 20260507020822 | 11 | 0 | 0.0 | 0.0 | 0.00 | 3.05 | 3.02 | 93 | 1016.5 |
| 20260507020621 | 11 | 0 | 0.0 | 0.0 | 0.00 | 3.05 | 3.02 | 93 | 1016.5 |
| 20260507020421 | 12 | 0 | 0.0 | 0.0 | 0.00 | 3.05 | 3.02 | 93 | 1016.6 |
| 20260507020221 | 12 | 0 | 0.0 | 0.0 | 0.00 | 3.05 | 3.02 | 93 | 1016.6 |
| 20260507020021 | 12 | 0 | 0.0 | 0.0 | 0.00 | 3.05 | 3.02 | 93 | 1016.6 |
| 20260507015821 | 12 | 0 | 0.0 | 0.0 | 0.00 | 3.05 | 3.02 | 93 | 1016.6 |
| 20260507015621 | 12 | 0 | 0.0 | 0.0 | 0.00 | 3.05 | 3.02 | 93 | 1016.6 |
| 20260507015421 | 12 | 0 | 0.0 | 0.0 | 0.00 | 3.05 | 3.02 | 93 | 1016.6 |
| 20260507015221 | 12 | 0 | 0.0 | 0.0 | 0.00 | 3.05 | 3.02 | 93 | 1016.5 |
| 20260507015021 | 12 | 0 | 0.0 | 0.0 | 0.00 | 3.05 | 3.02 | 93 | 1016.5 |
| 20260507014821 | 12 | 0 | 0.0 | 0.0 | 0.00 | 3.05 | 3.02 | 93 | 1016.5 |
| 20260507014622 | 12 | 0 | 0.0 | 0.0 | 0.00 | 3.05 | 3.02 | 93 | 1016.7 |
| 20260507014421 | 12 | 0 | 0.0 | 0.0 | 0.00 | 3.05 | 3.02 | 92 | 1016.7 |
| 20260507014221 | 12 | 0 | 0.0 | 0.0 | 0.00 | 3.05 | 3.02 | 92 | 1016.6 |
| 20260507014021 | 12 | 0 | 0.0 | 0.0 | 0.00 | 3.05 | 3.02 | 92 | 1016.6 |
| 20260507013821 | 12 | 0 | 0.0 | 0.0 | 0.00 | 3.05 | 3.02 | 92 | 1016.6 |
| 20260507013642 | 12 | 0 | 0.0 | 0.0 | 0.00 | 3.05 | 3.02 | 92 | 1016.5 |
| 20260507013421 | 12 | 0 | 0.0 | 0.0 | 0.00 | 3.05 | 3.02 | 91 | 1016.5 |
| 20260507013242 | 12 | 270 | 0.0 | 1.6 | 0.03 | 3.05 | 3.02 | 91 | 1016.3 |
| 20260507013021 | 12 | 270 | 0.0 | 1.6 | 0.03 | 3.05 | 3.02 | 91 | 1016.1 |
| 20260507012842 | 12 | 270 | 0.0 | 1.6 | 0.03 | 3.05 | 3.02 | 91 | 1015.7 |
| 20260507012621 | 12 | 269 | 0.0 | 1.6 | 0.03 | 3.05 | 3.02 | 91 | 1015.6 |
| 20260507012421 | 12 | 270 | 0.0 | 1.6 | 0.03 | 3.05 | 3.02 | 91 | 1015.5 |
| 20260507012242 | 12 | 270 | 0.0 | 1.6 | 0.03 | 3.05 | 3.02 | 91 | 1015.4 |
| 20260507012021 | 12 | 270 | 0.0 | 1.6 | 0.03 | 3.05 | 3.02 | 91 | 1015.4 |
| 20260507011821 | 12 | 270 | 0.0 | 1.6 | 0.03 | 3.05 | 3.02 | 91 | 1015.6 |
| 20260507011621 | 12 | 272 | 0.0 | 1.6 | 0.03 | 3.05 | 3.02 | 92 | 1015.5 |
| 20260507011421 | 12 | 271 | 0.0 | 1.6 | 0.03 | 3.05 | 3.02 | 92 | 1015.6 |
| 20260507011221 | 12 | 271 | 0.0 | 1.6 | 0.03 | 3.05 | 3.02 | 92 | 1015.6 |
| 20260507011042 | 12 | 279 | 0.0 | 1.6 | 0.03 | 3.05 | 3.02 | 92 | 1015.3 |
| 20260507010821 | 12 | 279 | 0.0 | 1.6 | 0.03 | 3.05 | 3.02 | 93 | 1015.1 |
| 20260507010621 | 12 | 288 | 0.0 | 1.6 | 0.03 | 3.05 | 3.02 | 93 | 1015.1 |
| 20260507010421 | 12 | 359 | 0.0 | 1.6 | 0.03 | 3.05 | 3.02 | 93 | 1015.2 |
| 20260507010221 | 12 | 13 | 0.0 | 1.6 | 0.03 | 3.05 | 3.02 | 93 | 1015.1 |
| 20260507010021 | 12 | 13 | 0.0 | 1.6 | 0.03 | 3.05 | 3.02 | 93 | 1014.9 |
| 20260507005821 | 12 | 13 | 0.0 | 1.6 | 0.03 | 3.05 | 3.02 | 93 | 1014.9 |
| 20260507005621 | 12 | 0 | 0.0 | 0.0 | 0.03 | 3.05 | 3.02 | 93 | 1014.7 |
| 20260507005421 | 12 | 0 | 0.0 | 0.0 | 0.03 | 3.05 | 3.02 | 93 | 1014.7 |
| 20260507005221 | 12 | 0 | 0.0 | 0.0 | 0.03 | 3.05 | 3.02 | 93 | 1014.8 |
| 20260507005042 | 12 | 0 | 0.0 | 0.0 | 0.03 | 3.05 | 3.02 | 93 | 1014.8 |
| 20260507004842 | 12 | 0 | 0.0 | 0.0 | 0.03 | 3.05 | 3.02 | 93 | 1014.8 |
| 20260507004642 | 12 | 0 | 0.0 | 0.0 | 0.03 | 3.05 | 3.02 | 93 | 1014.8 |
| 20260507004421 | 12 | 0 | 0.0 | 0.0 | 0.03 | 3.05 | 3.02 | 93 | 1014.8 |
| 20260507004221 | 12 | 0 | 0.0 | 0.0 | 0.03 | 3.05 | 3.02 | 93 | 1014.6 |
| 20260507004021 | 12 | 0 | 0.0 | 0.0 | 0.03 | 3.05 | 3.02 | 93 | 1014.3 |
| 20260507003821 | 12 | 0 | 0.0 | 0.0 | 0.03 | 3.05 | 3.02 | 93 | 1014.3 |
| 20260507003623 | 12 | 0 | 0.0 | 0.0 | 0.03 | 3.05 | 3.02 | 93 | 1014.4 |
| 20260507003421 | 12 | 0 | 0.0 | 0.0 | 0.03 | 3.05 | 3.02 | 94 | 1014.4 |
| 20260507003221 | 12 | 19 | 0.0 | 1.6 | 0.00 | 3.02 | 3.00 | 94 | 1014.4 |
| 20260507003021 | 12 | 19 | 0.0 | 1.6 | 0.00 | 3.02 | 3.00 | 94 | 1014.6 |
| 20260507002821 | 12 | 19 | 0.0 | 1.6 | 0.00 | 3.02 | 3.00 | 94 | 1014.7 |
| 20260507002621 | 12 | 19 | 0.0 | 1.6 | 0.00 | 3.02 | 3.00 | 94 | 1014.6 |
| 20260507002421 | 12 | 19 | 0.0 | 1.6 | 0.00 | 3.02 | 3.00 | 94 | 1014.5 |
| 20260507002221 | 12 | 20 | 0.0 | 1.6 | 0.00 | 3.02 | 3.00 | 94 | 1014.2 |
| 20260507002021 | 12 | 20 | 0.0 | 1.6 | 0.00 | 3.02 | 3.00 | 93 | 1014.2 |
| 20260507001821 | 12 | 20 | 0.0 | 1.6 | 0.00 | 3.02 | 3.00 | 93 | 1014.4 |
| 20260507001622 | 12 | 20 | 0.0 | 1.6 | 0.00 | 3.02 | 3.00 | 93 | 1014.5 |
| 20260507001421 | 12 | 19 | 0.0 | 1.6 | 0.00 | 3.02 | 3.00 | 93 | 1014.5 |
| 20260507001221 | 12 | 17 | 0.0 | 1.6 | 0.00 | 3.02 | 3.00 | 93 | 1014.5 |
| 20260507001021 | 12 | 14 | 0.0 | 1.6 | 0.00 | 3.02 | 3.00 | 93 | 1014.4 |
| 20260507000821 | 12 | 14 | 0.0 | 1.6 | 0.00 | 3.02 | 3.00 | 93 | 1014.2 |
| 20260507000621 | 12 | 358 | 0.0 | 1.6 | 0.00 | 3.02 | 3.00 | 93 | 1014.2 |
| 20260507000421 | 12 | 327 | 0.0 | 1.6 | 0.00 | 3.02 | 3.00 | 93 | 1014.3 |
| 20260507000221 | 12 | 308 | 0.0 | 1.6 | 0.00 | 3.02 | 3.00 | 93 | 1014.3 |
| 20260507000022 | 12 | 276 | 0.0 | 1.6 | 0.03 | 3.02 | 3.00 | 93 | 1014.2 |
| 20260506235821 | 12 | 276 | 0.0 | 1.6 | 0.03 | 3.02 | 3.00 | 93 | 1014.5 |
| 20260506235621 | 12 | 277 | 0.0 | 1.6 | 0.03 | 3.02 | 3.00 | 93 | 1014.4 |
| 20260506235421 | 12 | 280 | 0.0 | 1.6 | 0.03 | 3.02 | 3.00 | 93 | 1014.0 |
| 20260506235221 | 12 | 280 | 0.0 | 1.6 | 0.03 | 3.02 | 3.00 | 93 | 1013.9 |
| 20260506235021 | 12 | 280 | 0.0 | 1.6 | 0.03 | 3.02 | 3.00 | 93 | 1014.0 |
| 20260506234821 | 12 | 280 | 0.0 | 1.6 | 0.03 | 3.02 | 3.00 | 93 | 1014.5 |
| 20260506234621 | 12 | 0 | 0.0 | 0.0 | 0.03 | 3.02 | 3.00 | 93 | 1014.9 |
| 20260506234421 | 12 | 281 | 0.0 | 1.6 | 0.03 | 3.02 | 3.00 | 92 | 1015.2 |
| 20260506234242 | 12 | 281 | 0.0 | 1.6 | 0.03 | 3.02 | 3.00 | 92 | 1015.1 |
| 20260506234042 | 12 | 281 | 0.0 | 1.6 | 0.03 | 3.02 | 3.00 | 92 | 1014.9 |
| 20260506233822 | 12 | 281 | 0.0 | 1.6 | 0.03 | 3.02 | 3.00 | 92 | 1014.9 |
| 20260506233621 | 12 | 280 | 0.0 | 1.6 | 0.03 | 3.02 | 3.00 | 92 | 1015.1 |
| 20260506233442 | 12 | 280 | 0.0 | 1.6 | 0.03 | 3.02 | 3.00 | 92 | 1015.4 |
| 20260506233221 | 12 | 280 | 0.0 | 1.6 | 0.03 | 3.02 | 3.00 | 92 | 1015.6 |
| 20260506233021 | 12 | 280 | 0.0 | 1.6 | 0.03 | 3.02 | 3.00 | 92 | 1015.9 |
| 20260506232821 | 12 | 280 | 0.0 | 1.6 | 0.03 | 3.02 | 3.00 | 92 | 1016.0 |
| 20260506232621 | 12 | 280 | 0.0 | 1.6 | 0.03 | 3.02 | 3.00 | 92 | 1016.0 |
| 20260506232442 | 12 | 280 | 0.0 | 1.6 | 0.03 | 3.02 | 3.00 | 92 | 1016.1 |
| 20260506232242 | 13 | 280 | 0.0 | 1.6 | 0.03 | 3.02 | 3.00 | 92 | 1015.8 |
| 20260506232021 | 13 | 280 | 0.0 | 1.6 | 0.03 | 3.02 | 3.00 | 92 | 1015.4 |
| 20260506231821 | 13 | 280 | 0.0 | 1.6 | 0.03 | 3.02 | 3.00 | 92 | 1015.0 |
| 20260506231642 | 13 | 280 | 0.0 | 1.6 | 0.03 | 3.02 | 3.00 | 92 | 1014.8 |
| 20260506231421 | 13 | 280 | 0.0 | 1.6 | 0.03 | 3.02 | 3.00 | 91 | 1014.7 |
| 20260506231242 | 13 | 280 | 0.0 | 1.6 | 0.03 | 3.02 | 3.00 | 91 | 1014.6 |
| 20260506231021 | 13 | 0 | 0.0 | 0.0 | 0.03 | 3.02 | 3.00 | 91 | 1014.7 |